Wetterdaten: Montag, 13.02.2023
Datum Zeit Temp. Aussen Temp. o. S. Temp +5cm Feuchte Auss Luftdruck Regen Sonnenschein Regendauer Solar Windben Empfang
13.02.2023 00:00 7,5 C 6,7 C 3,3 C 93 % 1038,0 hPa 0,0 l/m 0 min 0 min 0 W/m 0,0 km/h (0 Bft) 97,87 %
13.02.2023 00:02 7,5 C 6,7 C 3,3 C 93 % 1038,0 hPa 0,0 l/m 0 min 0 min 0 W/m 0,0 km/h (0 Bft) 100,00 %
13.02.2023 00:04 7,5 C 6,7 C 3,3 C 93 % 1038,0 hPa 0,0 l/m 0 min 0 min 0 W/m 0,0 km/h (0 Bft) 97,87 %
13.02.2023 00:05 7,5 C 6,7 C 3,3 C 93 % 1038,0 hPa 0,0 l/m 0 min 0 min 0 W/m 0,0 km/h (0 Bft) 100,00 %
13.02.2023 00:08 7,5 C 6,7 C 3,3 C 93 % 1038,0 hPa 0,0 l/m 0 min 0 min 0 W/m 0,0 km/h (0 Bft) 100,00 %
13.02.2023 00:10 7,5 C 6,7 C 3,3 C 93 % 1038,0 hPa 0,0 l/m 0 min 0 min 0 W/m 0,0 km/h (0 Bft) 100,00 %
13.02.2023 00:12 7,5 C 6,7 C 3,3 C 93 % 1038,1 hPa 0,0 l/m 0 min 0 min 0 W/m 0,0 km/h (0 Bft) 97,87 %
13.02.2023 00:14 7,5 C 6,7 C 3,3 C 93 % 1038,0 hPa 0,0 l/m 0 min 0 min 0 W/m 0,0 km/h (0 Bft) 91,49 %
13.02.2023 00:16 7,5 C 6,7 C 3,3 C 93 % 1038,0 hPa 0,0 l/m 0 min 0 min 0 W/m 0,0 km/h (0 Bft) 100,00 %
13.02.2023 00:18 7,5 C 6,7 C 3,3 C 93 % 1038,0 hPa 0,0 l/m 0 min 0 min 0 W/m 0,0 km/h (0 Bft) 100,00 %
13.02.2023 00:20 7,5 C 6,7 C 3,3 C 93 % 1038,0 hPa 0,0 l/m 0 min 0 min 0 W/m 0,0 km/h (0 Bft) 97,83 %
13.02.2023 00:22 7,5 C 6,7 C 3,3 C 93 % 1038,0 hPa 0,0 l/m 0 min 0 min 0 W/m 0,0 km/h (0 Bft) 97,87 %
13.02.2023 00:24 7,4 C 6,7 C 3,3 C 93 % 1038,0 hPa 0,0 l/m 0 min 0 min 0 W/m 0,0 km/h (0 Bft) 97,87 %
13.02.2023 00:26 7,4 C 6,7 C 3,3 C 93 % 1037,9 hPa 0,0 l/m 0 min 0 min 0 W/m 0,0 km/h (0 Bft) 95,74 %
13.02.2023 00:28 7,5 C 6,7 C 3,3 C 93 % 1038,0 hPa 0,0 l/m 0 min 0 min 0 W/m 0,0 km/h (0 Bft) 97,87 %
13.02.2023 00:30 7,4 C 6,7 C 3,3 C 93 % 1038,0 hPa 0,0 l/m 0 min 0 min 0 W/m 0,0 km/h (0 Bft) 95,74 %
13.02.2023 00:32 7,4 C 6,7 C 3,3 C 93 % 1038,0 hPa 0,0 l/m 0 min 0 min 0 W/m 0,0 km/h (0 Bft) 97,87 %
13.02.2023 00:34 7,4 C 6,7 C 3,3 C 93 % 1038,0 hPa 0,0 l/m 0 min 0 min 0 W/m 0,0 km/h (0 Bft) 97,83 %
13.02.2023 00:36 7,4 C 6,7 C 3,3 C 93 % 1038,0 hPa 0,0 l/m 0 min 0 min 0 W/m 0,0 km/h (0 Bft) 97,87 %
13.02.2023 00:38 7,4 C 6,7 C 3,3 C 93 % 1038,0 hPa 0,0 l/m 0 min 0 min 0 W/m 0,0 km/h (0 Bft) 97,87 %
13.02.2023 00:40 7,5 C 6,7 C 3,3 C 93 % 1037,9 hPa 0,0 l/m 0 min 0 min 0 W/m 0,0 km/h (0 Bft) 97,87 %
13.02.2023 00:42 7,4 C 6,7 C 3,3 C 93 % 1037,9 hPa 0,0 l/m 0 min 0 min 0 W/m 0,0 km/h (0 Bft) 93,62 %
13.02.2023 00:44 7,4 C 6,7 C 3,3 C 93 % 1037,9 hPa 0,0 l/m 0 min 0 min 0 W/m 0,0 km/h (0 Bft) 97,87 %
13.02.2023 00:46 7,4 C 6,7 C 3,3 C 93 % 1037,9 hPa 0,0 l/m 0 min 0 min 0 W/m 0,0 km/h (0 Bft) 97,83 %
13.02.2023 00:48 7,4 C 6,7 C 3,3 C 93 % 1037,8 hPa 0,0 l/m 0 min 0 min 0 W/m 0,0 km/h (0 Bft) 97,87 %
13.02.2023 00:50 7,4 C 6,7 C 3,3 C 93 % 1037,9 hPa 0,0 l/m 0 min 0 min 0 W/m 0,0 km/h (0 Bft) 97,87 %
13.02.2023 00:52 7,4 C 6,7 C 3,3 C 93 % 1037,8 hPa 0,0 l/m 0 min 0 min 0 W/m 0,0 km/h (0 Bft) 95,74 %
13.02.2023 00:54 7,4 C 6,7 C 3,3 C 93 % 1037,7 hPa 0,0 l/m 0 min 0 min 0 W/m 0,0 km/h (0 Bft) 100,00 %
13.02.2023 00:56 7,4 C 6,7 C 3,3 C 93 % 1037,7 hPa 0,0 l/m 0 min 0 min 0 W/m 0,0 km/h (0 Bft) 97,87 %
13.02.2023 00:58 7,4 C 6,7 C 3,3 C 93 % 1037,7 hPa 0,0 l/m 0 min 0 min 0 W/m 0,0 km/h (0 Bft) 97,83 %
13.02.2023 01:00 7,4 C 6,7 C 3,3 C 93 % 1037,7 hPa 0,0 l/m 0 min 0 min 0 W/m 0,0 km/h (0 Bft) 100,00 %
13.02.2023 01:02 7,4 C 6,7 C 3,3 C 93 % 1037,7 hPa 0,0 l/m 0 min 0 min 0 W/m 0,0 km/h (0 Bft) 97,87 %
13.02.2023 01:04 7,4 C 6,7 C 3,3 C 93 % 1037,7 hPa 0,0 l/m 0 min 0 min 0 W/m 0,0 km/h (0 Bft) 97,87 %
13.02.2023 01:06 7,5 C 6,7 C 3,9 C 93 % 1037,7 hPa 0,0 l/m 0 min 0 min 0 W/m 0,0 km/h (0 Bft) 95,74 %
13.02.2023 01:08 7,5 C 7,2 C 3,9 C 93 % 1037,7 hPa 0,0 l/m 0 min 0 min 0 W/m 0,0 km/h (0 Bft) 95,74 %
13.02.2023 01:10 7,5 C 7,2 C 3,9 C 93 % 1037,7 hPa 0,0 l/m 0 min 0 min 0 W/m 0,0 km/h (0 Bft) 97,87 %
13.02.2023 01:12 7,6 C 7,2 C 3,9 C 93 % 1037,7 hPa 0,0 l/m 0 min 0 min 0 W/m 0,0 km/h (0 Bft) 97,83 %
13.02.2023 01:14 7,6 C 7,2 C 3,9 C 93 % 1037,7 hPa 0,0 l/m 0 min 0 min 0 W/m 0,0 km/h (0 Bft) 100,00 %
13.02.2023 01:16 7,6 C 7,2 C 3,9 C 93 % 1037,7 hPa 0,0 l/m 0 min 0 min 0 W/m 0,0 km/h (0 Bft) 95,74 %
13.02.2023 01:18 7,6 C 7,2 C 3,9 C 93 % 1037,6 hPa 0,0 l/m 0 min 0 min 0 W/m 0,0 km/h (0 Bft) 93,62 %
13.02.2023 01:20 7,6 C 7,2 C 3,9 C 93 % 1037,6 hPa 0,0 l/m 0 min 0 min 0 W/m 0,0 km/h (0 Bft) 91,49 %
13.02.2023 01:22 7,6 C 7,2 C 3,9 C 93 % 1037,6 hPa 0,0 l/m 0 min 0 min 0 W/m 0,0 km/h (0 Bft) 93,62 %
13.02.2023 01:24 7,6 C 7,2 C 3,9 C 93 % 1037,5 hPa 0,0 l/m 0 min 0 min 0 W/m 0,0 km/h (0 Bft) 95,65 %
13.02.2023 01:26 7,6 C 7,2 C 3,9 C 93 % 1037,5 hPa 0,0 l/m 0 min 0 min 0 W/m 3,2 km/h (1 Bft) 95,74 %
13.02.2023 01:28 7,7 C 7,2 C 3,9 C 93 % 1037,4 hPa 0,0 l/m 0 min 0 min 0 W/m 0,0 km/h (0 Bft) 95,74 %
13.02.2023 01:30 7,7 C 7,2 C 3,9 C 93 % 1037,5 hPa 0,0 l/m 0 min 0 min 0 W/m 0,0 km/h (0 Bft) 97,87 %
13.02.2023 01:32 7,7 C 7,2 C 3,9 C 93 % 1037,4 hPa 0,0 l/m 0 min 0 min 0 W/m 0,0 km/h (0 Bft) 95,74 %
13.02.2023 01:34 7,7 C 7,2 C 3,9 C 93 % 1037,4 hPa 0,0 l/m 0 min 0 min 0 W/m 0,0 km/h (0 Bft) 97,87 %
13.02.2023 01:36 7,7 C 7,2 C 3,9 C 93 % 1037,5 hPa 0,0 l/m 0 min 0 min 0 W/m 0,0 km/h (0 Bft) 95,74 %
13.02.2023 01:38 7,7 C 7,2 C 3,9 C 92 % 1037,4 hPa 0,0 l/m 0 min 0 min 0 W/m 0,0 km/h (0 Bft) 91,30 %
13.02.2023 01:40 7,7 C 7,2 C 3,9 C 92 % 1037,4 hPa 0,0 l/m 0 min 0 min 0 W/m 0,0 km/h (0 Bft) 95,74 %
13.02.2023 01:42 7,7 C 7,2 C 3,9 C 92 % 1037,4 hPa 0,0 l/m 0 min 0 min 0 W/m 0,0 km/h (0 Bft) 95,74 %
13.02.2023 01:44 7,7 C 7,2 C 3,9 C 92 % 1037,4 hPa 0,0 l/m 0 min 0 min 0 W/m 0,0 km/h (0 Bft) 93,62 %
13.02.2023 01:46 7,7 C 7,2 C 3,9 C 92 % 1037,4 hPa 0,0 l/m 0 min 0 min 0 W/m 0,0 km/h (0 Bft) 95,74 %
13.02.2023 01:48 7,7 C 7,2 C 3,9 C 92 % 1037,4 hPa 0,0 l/m 0 min 0 min 0 W/m 0,0 km/h (0 Bft) 97,87 %
13.02.2023 01:50 7,7 C 7,2 C 3,9 C 92 % 1037,4 hPa 0,0 l/m 0 min 0 min 0 W/m 0,0 km/h (0 Bft) 95,65 %
13.02.2023 01:52 7,7 C 7,2 C 3,9 C 92 % 1037,4 hPa 0,0 l/m 0 min 0 min 0 W/m 0,0 km/h (0 Bft) 95,74 %
13.02.2023 01:54 7,7 C 7,2 C 3,9 C 92 % 1037,4 hPa 0,0 l/m 0 min 0 min 0 W/m 0,0 km/h (0 Bft) 97,87 %
13.02.2023 01:56 7,7 C 7,2 C 3,9 C 92 % 1037,4 hPa 0,0 l/m 0 min 0 min 0 W/m 0,0 km/h (0 Bft) 95,74 %
13.02.2023 01:58 7,8 C 7,2 C 3,9 C 92 % 1037,4 hPa 0,0 l/m 0 min 0 min 0 W/m 0,0 km/h (0 Bft) 95,74 %
13.02.2023 02:00 7,8 C 7,2 C 3,9 C 92 % 1037,4 hPa 0,0 l/m 0 min 0 min 0 W/m 0,0 km/h (0 Bft) 97,87 %
13.02.2023 02:02 7,8 C 7,2 C 3,9 C 92 % 1037,4 hPa 0,0 l/m 0 min 0 min 0 W/m 0,0 km/h (0 Bft) 55,32 %
13.02.2023 02:04 7,8 C 7,2 C 3,9 C 92 % 1037,4 hPa 0,0 l/m 0 min 0 min 0 W/m 0,0 km/h (0 Bft) 96,88 %
13.02.2023 02:06 7,8 C 7,2 C 3,9 C 92 % 1037,4 hPa 0,0 l/m 0 min 0 min 0 W/m 0,0 km/h (0 Bft) 93,62 %
13.02.2023 02:08 7,8 C 7,2 C 3,9 C 92 % 1037,4 hPa 0,0 l/m 0 min 0 min 0 W/m 0,0 km/h (0 Bft) 94,59 %
13.02.2023 02:10 7,8 C 7,2 C 3,9 C 91 % 1037,4 hPa 0,0 l/m 0 min 0 min 0 W/m 0,0 km/h (0 Bft) 97,87 %
13.02.2023 02:12 7,8 C 7,2 C 3,9 C 91 % 1037,4 hPa 0,0 l/m 0 min 0 min 0 W/m 3,2 km/h (1 Bft) 97,87 %
13.02.2023 02:14 7,8 C 7,2 C 3,9 C 91 % 1037,4 hPa 0,0 l/m 0 min 0 min 0 W/m 3,2 km/h (1 Bft) 95,74 %
13.02.2023 02:16 7,8 C 7,2 C 3,9 C 91 % 1037,3 hPa 0,0 l/m 0 min 0 min 0 W/m 6,4 km/h (2 Bft) 97,87 %
13.02.2023 02:18 7,8 C 7,2 C 3,9 C 91 % 1037,4 hPa 0,0 l/m 0 min 0 min 0 W/m 12,9 km/h (3 Bft) 97,87 %
13.02.2023 02:20 7,8 C 7,2 C 3,9 C 91 % 1037,4 hPa 0,0 l/m 0 min 0 min 0 W/m 12,9 km/h (3 Bft) 95,65 %
13.02.2023 02:22 7,8 C 7,2 C 3,9 C 91 % 1037,3 hPa 0,0 l/m 0 min 0 min 0 W/m 19,3 km/h (3 Bft) 97,87 %
13.02.2023 02:24 7,8 C 7,2 C 3,9 C 91 % 1037,3 hPa 0,0 l/m 0 min 0 min 0 W/m 16,1 km/h (3 Bft) 97,87 %
13.02.2023 02:26 7,8 C 7,2 C 3,9 C 91 % 1037,3 hPa 0,0 l/m 0 min 0 min 0 W/m 12,9 km/h (3 Bft) 97,87 %
13.02.2023 02:28 7,8 C 7,2 C 3,9 C 91 % 1037,3 hPa 0,0 l/m 0 min 0 min 0 W/m 16,1 km/h (3 Bft) 97,87 %
13.02.2023 02:30 7,8 C 7,2 C 3,9 C 91 % 1037,3 hPa 0,0 l/m 0 min 0 min 0 W/m 12,9 km/h (3 Bft) 100,00 %
13.02.2023 02:32 7,8 C 7,2 C 3,9 C 90 % 1037,3 hPa 0,0 l/m 0 min 0 min 0 W/m 12,9 km/h (3 Bft) 91,49 %
13.02.2023 02:34 7,8 C 7,2 C 3,9 C 90 % 1037,3 hPa 0,0 l/m 0 min 0 min 0 W/m 12,9 km/h (3 Bft) 95,65 %
13.02.2023 02:36 7,8 C 7,2 C 3,9 C 90 % 1037,2 hPa 0,0 l/m 0 min 0 min 0 W/m 12,9 km/h (3 Bft) 100,00 %
13.02.2023 02:38 7,8 C 7,2 C 3,9 C 90 % 1037,3 hPa 0,0 l/m 0 min 0 min 0 W/m 6,4 km/h (2 Bft) 95,74 %
13.02.2023 02:40 7,8 C 6,7 C 3,9 C 90 % 1037,3 hPa 0,0 l/m 0 min 0 min 0 W/m 6,4 km/h (2 Bft) 95,74 %
13.02.2023 02:42 7,8 C 7,2 C 3,9 C 90 % 1037,2 hPa 0,0 l/m 0 min 0 min 0 W/m 12,9 km/h (3 Bft) 97,87 %
13.02.2023 02:44 7,8 C 6,7 C 3,9 C 90 % 1037,2 hPa 0,0 l/m 0 min 0 min 0 W/m 12,9 km/h (3 Bft) 91,49 %
13.02.2023 02:46 7,8 C 6,7 C 3,9 C 90 % 1037,1 hPa 0,0 l/m 0 min 0 min 0 W/m 12,9 km/h (3 Bft) 97,83 %
13.02.2023 02:48 7,8 C 6,7 C 3,9 C 90 % 1037,1 hPa 0,0 l/m 0 min 0 min 0 W/m 9,7 km/h (2 Bft) 97,87 %
13.02.2023 02:50 7,7 C 6,7 C 3,9 C 90 % 1037,1 hPa 0,0 l/m 0 min 0 min 0 W/m 12,9 km/h (3 Bft) 93,62 %
13.02.2023 02:52 7,7 C 6,7 C 3,3 C 90 % 1037,1 hPa 0,0 l/m 0 min 0 min 0 W/m 6,4 km/h (2 Bft) 95,74 %
13.02.2023 02:54 7,7 C 6,7 C 3,3 C 90 % 1037,2 hPa 0,0 l/m 0 min 0 min 0 W/m 6,4 km/h (2 Bft) 97,87 %
13.02.2023 02:56 7,7 C 6,7 C 3,3 C 90 % 1037,2 hPa 0,0 l/m 0 min 0 min 0 W/m 6,4 km/h (2 Bft) 95,74 %
13.02.2023 02:58 7,7 C 6,7 C 3,3 C 90 % 1037,2 hPa 0,0 l/m 0 min 0 min 0 W/m 12,9 km/h (3 Bft) 97,87 %
13.02.2023 03:00 7,6 C 6,7 C 3,3 C 90 % 1037,1 hPa 0,0 l/m 0 min 0 min 0 W/m 12,9 km/h (3 Bft) 97,83 %
13.02.2023 03:02 7,6 C 6,7 C 3,3 C 90 % 1037,1 hPa 0,0 l/m 0 min 0 min 0 W/m 6,4 km/h (2 Bft) 91,49 %
13.02.2023 03:04 7,6 C 6,7 C 3,3 C 90 % 1037,1 hPa 0,0 l/m 0 min 0 min 0 W/m 3,2 km/h (1 Bft) 97,87 %
13.02.2023 03:06 7,6 C 6,7 C 3,3 C 90 % 1037,1 hPa 0,0 l/m 0 min 0 min 0 W/m 6,4 km/h (2 Bft) 96,61 %
13.02.2023 03:08 7,6 C 6,1 C 3,3 C 90 % 1037,1 hPa 0,0 l/m 0 min 0 min 0 W/m 6,4 km/h (2 Bft) 100,00 %
13.02.2023 03:10 7,6 C 6,1 C 3,3 C 90 % 1037,1 hPa 0,0 l/m 0 min 0 min 0 W/m 16,1 km/h (3 Bft) 95,74 %
13.02.2023 03:12 7,5 C 6,1 C 3,3 C 90 % 1037,1 hPa 0,0 l/m 0 min 0 min 0 W/m 6,4 km/h (2 Bft) 95,65 %
13.02.2023 03:14 7,5 C 6,1 C 3,3 C 90 % 1037,1 hPa 0,0 l/m 0 min 0 min 0 W/m 6,4 km/h (2 Bft) 93,62 %
13.02.2023 03:16 7,4 C 6,1 C 3,3 C 90 % 1037,1 hPa 0,0 l/m 0 min 0 min 0 W/m 6,4 km/h (2 Bft) 95,74 %
13.02.2023 03:18 7,4 C 6,1 C 3,3 C 90 % 1037,1 hPa 0,0 l/m 0 min 0 min 0 W/m 6,4 km/h (2 Bft) 95,74 %
13.02.2023 03:20 7,4 C 6,1 C 3,3 C 90 % 1037,1 hPa 0,0 l/m 0 min 0 min 0 W/m 12,9 km/h (3 Bft) 95,74 %
13.02.2023 03:22 7,4 C 6,1 C 3,3 C 90 % 1037,2 hPa 0,0 l/m 0 min 0 min 0 W/m 12,9 km/h (3 Bft) 95,74 %
13.02.2023 03:24 7,4 C 6,1 C 3,3 C 90 % 1037,1 hPa 0,0 l/m 0 min 0 min 0 W/m 6,4 km/h (2 Bft) 93,48 %
13.02.2023 03:26 7,3 C 6,1 C 3,3 C 90 % 1037,1 hPa 0,0 l/m 0 min 0 min 0 W/m 12,9 km/h (3 Bft) 97,87 %
13.02.2023 03:28 7,3 C 6,1 C 3,3 C 90 % 1037,1 hPa 0,0 l/m 0 min 0 min 0 W/m 3,2 km/h (1 Bft) 97,87 %
13.02.2023 03:30 7,3 C 6,1 C 3,3 C 90 % 1037,1 hPa 0,0 l/m 0 min 0 min 0 W/m 6,4 km/h (2 Bft) 95,74 %
13.02.2023 03:32 7,3 C 6,1 C 3,3 C 90 % 1037,1 hPa 0,0 l/m 0 min 0 min 0 W/m 6,4 km/h (2 Bft) 97,87 %
13.02.2023 03:34 7,2 C 6,1 C 2,8 C 90 % 1037,1 hPa 0,0 l/m 0 min 0 min 0 W/m 6,4 km/h (2 Bft) 95,74 %
13.02.2023 03:36 7,2 C 6,1 C 2,8 C 90 % 1037,1 hPa 0,0 l/m 0 min 0 min 0 W/m 3,2 km/h (1 Bft) 93,62 %
13.02.2023 03:38 7,2 C 6,1 C 2,8 C 90 % 1037,1 hPa 0,0 l/m 0 min 0 min 0 W/m 3,2 km/h (1 Bft) 97,83 %
13.02.2023 03:40 7,2 C 6,1 C 2,8 C 91 % 1037,1 hPa 0,0 l/m 0 min 0 min 0 W/m 6,4 km/h (2 Bft) 97,87 %
13.02.2023 03:42 7,2 C 6,1 C 2,8 C 91 % 1037,1 hPa 0,0 l/m 0 min 0 min 0 W/m 3,2 km/h (1 Bft) 93,62 %
13.02.2023 03:44 7,1 C 6,1 C 2,8 C 91 % 1037,1 hPa 0,0 l/m 0 min 0 min 0 W/m 3,2 km/h (1 Bft) 100,00 %
13.02.2023 03:46 7,1 C 6,1 C 2,8 C 91 % 1037,1 hPa 0,0 l/m 0 min 0 min 0 W/m 6,4 km/h (2 Bft) 100,00 %
13.02.2023 03:48 7,1 C 6,1 C 2,8 C 91 % 1037,2 hPa 0,0 l/m 0 min 0 min 0 W/m 12,9 km/h (3 Bft) 100,00 %
13.02.2023 03:50 7,1 C 6,1 C 2,8 C 91 % 1037,2 hPa 0,0 l/m 0 min 0 min 0 W/m 6,4 km/h (2 Bft) 100,00 %
13.02.2023 03:52 7,1 C 6,1 C 3,3 C 91 % 1037,2 hPa 0,0 l/m 0 min 0 min 0 W/m 6,4 km/h (2 Bft) 100,00 %
13.02.2023 03:54 7,1 C 6,1 C 2,8 C 91 % 1037,1 hPa 0,0 l/m 0 min 0 min 0 W/m 6,4 km/h (2 Bft) 100,00 %
13.02.2023 03:56 7,1 C 6,1 C 3,3 C 91 % 1037,1 hPa 0,0 l/m 0 min 0 min 0 W/m 6,4 km/h (2 Bft) 97,87 %
13.02.2023 03:58 7,1 C 6,1 C 3,3 C 91 % 1037,1 hPa 0,0 l/m 0 min 0 min 0 W/m 6,4 km/h (2 Bft) 100,00 %
13.02.2023 04:00 7,1 C 6,1 C 3,3 C 91 % 1037,1 hPa 0,0 l/m 0 min 0 min 0 W/m 6,4 km/h (2 Bft) 95,74 %
13.02.2023 04:02 7,1 C 6,1 C 2,8 C 91 % 1037,1 hPa 0,0 l/m 0 min 0 min 0 W/m 3,2 km/h (1 Bft) 97,87 %
13.02.2023 04:04 7,0 C 6,1 C 2,8 C 91 % 1037,1 hPa 0,0 l/m 0 min 0 min 0 W/m 6,4 km/h (2 Bft) 100,00 %
13.02.2023 04:06 7,0 C 6,1 C 2,8 C 91 % 1037,1 hPa 0,0 l/m 0 min 0 min 0 W/m 6,4 km/h (2 Bft) 98,31 %
13.02.2023 04:08 7,0 C 6,1 C 2,8 C 91 % 1037,1 hPa 0,0 l/m 0 min 0 min 0 W/m 6,4 km/h (2 Bft) 97,14 %
13.02.2023 04:10 7,0 C 6,1 C 2,8 C 91 % 1037,1 hPa 0,0 l/m 0 min 0 min 0 W/m 6,4 km/h (2 Bft) 100,00 %
13.02.2023 04:12 7,0 C 6,1 C 2,8 C 91 % 1037,1 hPa 0,0 l/m 0 min 0 min 0 W/m 3,2 km/h (1 Bft) 100,00 %
13.02.2023 04:14 6,9 C 6,1 C 2,8 C 91 % 1037,1 hPa 0,0 l/m 0 min 0 min 0 W/m 12,9 km/h (3 Bft) 100,00 %
13.02.2023 04:16 6,9 C 6,1 C 2,8 C 91 % 1037,1 hPa 0,0 l/m 0 min 0 min 0 W/m 12,9 km/h (3 Bft) 100,00 %
13.02.2023 04:18 6,9 C 6,1 C 2,8 C 91 % 1037,1 hPa 0,0 l/m 0 min 0 min 0 W/m 6,4 km/h (2 Bft) 100,00 %
13.02.2023 04:20 6,9 C 6,1 C 2,8 C 91 % 1037,1 hPa 0,0 l/m 0 min 0 min 0 W/m 6,4 km/h (2 Bft) 97,87 %
13.02.2023 04:22 6,9 C 6,1 C 2,8 C 91 % 1037,1 hPa 0,0 l/m 0 min 0 min 0 W/m 12,9 km/h (3 Bft) 97,87 %
13.02.2023 04:24 6,9 C 6,1 C 2,8 C 92 % 1037,1 hPa 0,0 l/m 0 min 0 min 0 W/m 6,4 km/h (2 Bft) 100,00 %
13.02.2023 04:26 6,9 C 6,1 C 2,8 C 92 % 1037,1 hPa 0,0 l/m 0 min 0 min 0 W/m 6,4 km/h (2 Bft) 100,00 %
13.02.2023 04:28 6,9 C 6,1 C 2,8 C 92 % 1037,1 hPa 0,0 l/m 0 min 0 min 0 W/m 6,4 km/h (2 Bft) 97,87 %
13.02.2023 04:30 6,8 C 6,1 C 2,8 C 92 % 1037,1 hPa 0,0 l/m 0 min 0 min 0 W/m 12,9 km/h (3 Bft) 100,00 %
13.02.2023 04:32 6,8 C 6,1 C 2,8 C 92 % 1037,0 hPa 0,0 l/m 0 min 0 min 0 W/m 12,9 km/h (3 Bft) 100,00 %
13.02.2023 04:34 6,8 C 6,1 C 2,8 C 92 % 1037,0 hPa 0,0 l/m 0 min 0 min 0 W/m 12,9 km/h (3 Bft) 97,87 %
13.02.2023 04:36 6,8 C 6,1 C 2,8 C 92 % 1037,0 hPa 0,0 l/m 0 min 0 min 0 W/m 6,4 km/h (2 Bft) 95,74 %
13.02.2023 04:38 6,8 C 6,1 C 2,8 C 92 % 1037,0 hPa 0,0 l/m 0 min 0 min 0 W/m 6,4 km/h (2 Bft) 97,87 %
13.02.2023 04:40 6,8 C 6,1 C 2,8 C 92 % 1037,0 hPa 0,0 l/m 0 min 0 min 0 W/m 12,9 km/h (3 Bft) 95,74 %
13.02.2023 04:42 6,8 C 6,1 C 2,8 C 92 % 1037,1 hPa 0,0 l/m 0 min 0 min 0 W/m 12,9 km/h (3 Bft) 97,83 %
13.02.2023 04:44 6,8 C 6,1 C 2,8 C 92 % 1037,0 hPa 0,0 l/m 0 min 0 min 0 W/m 6,4 km/h (2 Bft) 97,87 %
13.02.2023 04:46 6,8 C 6,1 C 2,8 C 92 % 1037,1 hPa 0,0 l/m 0 min 0 min 0 W/m 6,4 km/h (2 Bft) 97,87 %
13.02.2023 04:48 6,8 C 6,1 C 2,8 C 92 % 1037,0 hPa 0,0 l/m 0 min 0 min 0 W/m 16,1 km/h (3 Bft) 93,62 %
13.02.2023 04:50 6,8 C 6,1 C 2,8 C 92 % 1037,1 hPa 0,0 l/m 0 min 0 min 0 W/m 3,2 km/h (1 Bft) 97,87 %
13.02.2023 04:52 6,8 C 6,1 C 2,8 C 92 % 1037,1 hPa 0,0 l/m 0 min 0 min 0 W/m 6,4 km/h (2 Bft) 97,87 %
13.02.2023 04:54 6,8 C 6,1 C 2,8 C 92 % 1037,1 hPa 0,0 l/m 0 min 0 min 0 W/m 9,7 km/h (2 Bft) 93,62 %
13.02.2023 04:56 6,8 C 5,6 C 2,8 C 92 % 1037,1 hPa 0,0 l/m 0 min 0 min 0 W/m 12,9 km/h (3 Bft) 97,83 %
13.02.2023 04:58 6,8 C 5,6 C 2,8 C 92 % 1037,1 hPa 0,0 l/m 0 min 0 min 0 W/m 6,4 km/h (2 Bft) 93,62 %
13.02.2023 05:00 6,8 C 5,6 C 2,8 C 92 % 1037,1 hPa 0,0 l/m 0 min 0 min 0 W/m 6,4 km/h (2 Bft) 97,87 %
13.02.2023 05:02 6,7 C 5,6 C 2,8 C 92 % 1037,1 hPa 0,0 l/m 0 min 0 min 0 W/m 6,4 km/h (2 Bft) 95,74 %
13.02.2023 05:04 6,7 C 5,6 C 2,8 C 92 % 1037,1 hPa 0,0 l/m 0 min 0 min 0 W/m 6,4 km/h (2 Bft) 95,74 %
13.02.2023 05:06 6,7 C 5,6 C 2,8 C 92 % 1037,2 hPa 0,0 l/m 0 min 0 min 0 W/m 6,4 km/h (2 Bft) 95,74 %
13.02.2023 05:08 6,7 C 5,6 C 2,8 C 92 % 1037,2 hPa 0,0 l/m 0 min 0 min 0 W/m 6,4 km/h (2 Bft) 93,62 %
13.02.2023 05:10 6,7 C 5,6 C 2,8 C 92 % 1037,1 hPa 0,0 l/m 0 min 0 min 0 W/m 3,2 km/h (1 Bft) 97,83 %
13.02.2023 05:12 6,7 C 5,6 C 2,8 C 92 % 1037,2 hPa 0,0 l/m 0 min 0 min 0 W/m 3,2 km/h (1 Bft) 95,74 %
13.02.2023 05:14 6,7 C 5,6 C 2,8 C 92 % 1037,2 hPa 0,0 l/m 0 min 0 min 0 W/m 6,4 km/h (2 Bft) 95,74 %
13.02.2023 05:16 6,6 C 5,6 C 2,8 C 92 % 1037,2 hPa 0,0 l/m 0 min 0 min 0 W/m 9,7 km/h (2 Bft) 93,62 %
13.02.2023 05:18 6,6 C 5,6 C 2,8 C 92 % 1037,2 hPa 0,0 l/m 0 min 0 min 0 W/m 6,4 km/h (2 Bft) 93,62 %
13.02.2023 05:20 6,6 C 5,6 C 2,8 C 92 % 1037,3 hPa 0,0 l/m 0 min 0 min 0 W/m 3,2 km/h (1 Bft) 93,62 %
13.02.2023 05:22 6,6 C 5,6 C 2,8 C 92 % 1037,2 hPa 0,0 l/m 0 min 0 min 0 W/m 3,2 km/h (1 Bft) 89,13 %
13.02.2023 05:24 6,6 C 5,6 C 2,8 C 92 % 1037,2 hPa 0,0 l/m 0 min 0 min 0 W/m 12,9 km/h (3 Bft) 93,62 %
13.02.2023 05:26 6,6 C 5,6 C 2,8 C 92 % 1037,2 hPa 0,0 l/m 0 min 0 min 0 W/m 16,1 km/h (3 Bft) 89,36 %
13.02.2023 05:28 6,6 C 5,6 C 2,2 C 92 % 1037,2 hPa 0,0 l/m 0 min 0 min 0 W/m 6,4 km/h (2 Bft) 95,74 %
13.02.2023 05:30 6,5 C 5,6 C 2,2 C 92 % 1037,2 hPa 0,0 l/m 0 min 0 min 0 W/m 6,4 km/h (2 Bft) 89,36 %
13.02.2023 05:32 6,5 C 5,6 C 2,2 C 92 % 1037,2 hPa 0,0 l/m 0 min 0 min 0 W/m 3,2 km/h (1 Bft) 93,62 %
13.02.2023 05:34 6,5 C 5,0 C 2,2 C 92 % 1037,2 hPa 0,0 l/m 0 min 0 min 0 W/m 3,2 km/h (1 Bft) 95,65 %
13.02.2023 05:36 6,4 C 5,0 C 2,2 C 92 % 1037,3 hPa 0,0 l/m 0 min 0 min 0 W/m 3,2 km/h (1 Bft) 97,87 %
13.02.2023 05:38 6,4 C 5,0 C 2,2 C 92 % 1037,2 hPa 0,0 l/m 0 min 0 min 0 W/m 3,2 km/h (1 Bft) 97,87 %
13.02.2023 05:40 6,4 C 5,0 C 2,2 C 92 % 1037,3 hPa 0,0 l/m 0 min 0 min 0 W/m 6,4 km/h (2 Bft) 93,62 %
13.02.2023 05:42 6,3 C 5,0 C 2,2 C 92 % 1037,3 hPa 0,0 l/m 0 min 0 min 0 W/m 3,2 km/h (1 Bft) 85,11 %
13.02.2023 05:44 6,3 C 5,0 C 1,7 C 92 % 1037,2 hPa 0,0 l/m 0 min 0 min 0 W/m 6,4 km/h (2 Bft) 95,74 %
13.02.2023 05:46 6,2 C 5,0 C 1,7 C 92 % 1037,3 hPa 0,0 l/m 0 min 0 min 0 W/m 3,2 km/h (1 Bft) 97,87 %
13.02.2023 05:48 6,2 C 4,4 C 1,7 C 92 % 1037,2 hPa 0,0 l/m 0 min 0 min 0 W/m 3,2 km/h (1 Bft) 93,48 %
13.02.2023 05:50 6,2 C 4,4 C 1,7 C 92 % 1037,2 hPa 0,0 l/m 0 min 0 min 0 W/m 0,0 km/h (0 Bft) 97,87 %
13.02.2023 05:52 6,1 C 4,4 C 1,7 C 92 % 1037,2 hPa 0,0 l/m 0 min 0 min 0 W/m 0,0 km/h (0 Bft) 97,87 %
13.02.2023 05:54 6,1 C 4,4 C 1,7 C 92 % 1037,2 hPa 0,0 l/m 0 min 0 min 0 W/m 0,0 km/h (0 Bft) 93,62 %
13.02.2023 05:56 6,0 C 3,9 C 1,1 C 92 % 1037,2 hPa 0,0 l/m 0 min 0 min 0 W/m 3,2 km/h (1 Bft) 97,87 %
13.02.2023 05:58 5,9 C 3,9 C 1,1 C 92 % 1037,2 hPa 0,0 l/m 0 min 0 min 0 W/m 0,0 km/h (0 Bft) 95,74 %
13.02.2023 06:00 5,9 C 3,9 C 1,1 C 92 % 1037,1 hPa 0,0 l/m 0 min 0 min 0 W/m 0,0 km/h (0 Bft) 97,83 %
13.02.2023 06:02 5,8 C 3,9 C 1,1 C 92 % 1037,1 hPa 0,0 l/m 0 min 0 min 0 W/m 0,0 km/h (0 Bft) 95,74 %
13.02.2023 06:04 5,8 C 3,9 C 1,1 C 92 % 1037,1 hPa 0,0 l/m 0 min 0 min 0 W/m 0,0 km/h (0 Bft) 100,00 %
13.02.2023 06:07 5,7 C 3,9 C 1,1 C 92 % 1037,1 hPa 0,0 l/m 0 min 0 min 0 W/m 0,0 km/h (0 Bft) 100,00 %
13.02.2023 06:08 5,7 C 3,9 C 1,1 C 92 % 1037,1 hPa 0,0 l/m 0 min 0 min 0 W/m 3,2 km/h (1 Bft) 100,00 %
13.02.2023 06:12 5,6 C 3,9 C 1,1 C 92 % 1037,1 hPa 0,0 l/m 0 min 0 min 0 W/m 0,0 km/h (0 Bft) 98,11 %
13.02.2023 06:14 5,5 C 3,3 C 1,1 C 92 % 1037,1 hPa 0,0 l/m 0 min 0 min 0 W/m 3,2 km/h (1 Bft) 100,00 %
13.02.2023 06:16 5,4 C 3,3 C 0,6 C 92 % 1037,1 hPa 0,0 l/m 0 min 0 min 0 W/m 3,2 km/h (1 Bft) 95,74 %
13.02.2023 06:18 5,4 C 3,3 C 0,6 C 92 % 1037,1 hPa 0,0 l/m 0 min 0 min 0 W/m 0,0 km/h (0 Bft) 95,65 %
13.02.2023 06:20 5,3 C 3,3 C 0,6 C 92 % 1037,1 hPa 0,0 l/m 0 min 0 min 0 W/m 3,2 km/h (1 Bft) 97,87 %
13.02.2023 06:22 5,3 C 3,3 C 0,6 C 92 % 1037,1 hPa 0,0 l/m 0 min 0 min 0 W/m 0,0 km/h (0 Bft) 100,00 %
13.02.2023 06:24 5,2 C 3,3 C 0,6 C 92 % 1037,1 hPa 0,0 l/m 0 min 0 min 0 W/m 0,0 km/h (0 Bft) 100,00 %
13.02.2023 06:26 5,2 C 3,3 C 0,6 C 92 % 1037,1 hPa 0,0 l/m 0 min 0 min 0 W/m 0,0 km/h (0 Bft) 100,00 %
13.02.2023 06:28 5,2 C 3,3 C 0,6 C 92 % 1037,1 hPa 0,0 l/m 0 min 0 min 0 W/m 0,0 km/h (0 Bft) 97,87 %
13.02.2023 06:30 5,1 C 3,3 C 0,6 C 92 % 1037,2 hPa 0,0 l/m 0 min 0 min 0 W/m 0,0 km/h (0 Bft) 100,00 %
13.02.2023 06:32 5,1 C 3,3 C 0,6 C 92 % 1037,1 hPa 0,0 l/m 0 min 0 min 0 W/m 3,2 km/h (1 Bft) 97,83 %
13.02.2023 06:34 5,1 C 3,3 C 0,6 C 92 % 1037,1 hPa 0,0 l/m 0 min 0 min 0 W/m 0,0 km/h (0 Bft) 100,00 %
13.02.2023 06:36 5,0 C 3,3 C 0,6 C 92 % 1037,1 hPa 0,0 l/m 0 min 0 min 0 W/m 3,2 km/h (1 Bft) 100,00 %
13.02.2023 06:38 5,0 C 3,3 C 0,6 C 92 % 1037,1 hPa 0,0 l/m 0 min 0 min 0 W/m 0,0 km/h (0 Bft) 97,87 %
13.02.2023 06:40 4,9 C 3,3 C 0,6 C 92 % 1037,2 hPa 0,0 l/m 0 min 0 min 0 W/m 0,0 km/h (0 Bft) 97,87 %
13.02.2023 06:42 4,9 C 3,3 C 0,6 C 92 % 1037,1 hPa 0,0 l/m 0 min 0 min 0 W/m 3,2 km/h (1 Bft) 95,74 %
13.02.2023 06:44 4,8 C 3,3 C 0,6 C 92 % 1037,1 hPa 0,0 l/m 0 min 0 min 0 W/m 0,0 km/h (0 Bft) 100,00 %
13.02.2023 06:46 4,8 C 3,3 C 0,6 C 92 % 1037,1 hPa 0,0 l/m 0 min 0 min 0 W/m 0,0 km/h (0 Bft) 97,87 %
13.02.2023 06:48 4,8 C 3,3 C 0,6 C 92 % 1037,1 hPa 0,0 l/m 0 min 0 min 0 W/m 0,0 km/h (0 Bft) 97,87 %
13.02.2023 06:50 4,7 C 3,3 C 0,6 C 92 % 1037,1 hPa 0,0 l/m 0 min 0 min 0 W/m 3,2 km/h (1 Bft) 93,62 %
13.02.2023 06:52 4,7 C 3,3 C 0,6 C 92 % 1037,1 hPa 0,0 l/m 0 min 0 min 0 W/m 0,0 km/h (0 Bft) 97,87 %
13.02.2023 06:54 4,7 C 3,3 C 0,6 C 92 % 1037,1 hPa 0,0 l/m 0 min 0 min 0 W/m 3,2 km/h (1 Bft) 91,49 %
13.02.2023 06:56 4,7 C 3,3 C 0,6 C 92 % 1037,1 hPa 0,0 l/m 0 min 0 min 0 W/m 3,2 km/h (1 Bft) 89,36 %
13.02.2023 06:58 4,7 C 3,3 C 0,6 C 92 % 1037,1 hPa 0,0 l/m 0 min 0 min 0 W/m 3,2 km/h (1 Bft) 95,65 %
13.02.2023 07:00 4,7 C 3,9 C 0,6 C 93 % 1037,1 hPa 0,0 l/m 0 min 0 min 0 W/m 3,2 km/h (1 Bft) 95,74 %
13.02.2023 07:02 4,7 C 3,9 C 1,1 C 93 % 1037,0 hPa 0,0 l/m 0 min 0 min 0 W/m 6,4 km/h (2 Bft) 97,87 %
13.02.2023 07:04 4,7 C 3,9 C 1,1 C 93 % 1037,0 hPa 0,0 l/m 0 min 0 min 0 W/m 6,4 km/h (2 Bft) 95,74 %
13.02.2023 07:06 4,8 C 4,4 C 1,1 C 93 % 1037,0 hPa 0,0 l/m 0 min 0 min 0 W/m 6,4 km/h (2 Bft) 96,61 %
13.02.2023 07:08 4,8 C 4,4 C 1,1 C 93 % 1036,9 hPa 0,0 l/m 0 min 0 min 0 W/m 3,2 km/h (1 Bft) 88,89 %
13.02.2023 07:10 4,8 C 4,4 C 1,1 C 93 % 1036,9 hPa 0,0 l/m 0 min 0 min 0 W/m 3,2 km/h (1 Bft) 73,91 %
13.02.2023 07:12 4,9 C 4,4 C 1,1 C 93 % 1036,9 hPa 0,0 l/m 0 min 0 min 0 W/m 6,4 km/h (2 Bft) 80,85 %
13.02.2023 07:14 4,9 C 4,4 C 1,7 C 94 % 1036,9 hPa 0,0 l/m 0 min 0 min 0 W/m 6,4 km/h (2 Bft) 82,98 %
13.02.2023 07:16 4,9 C 4,4 C 1,7 C 94 % 1036,9 hPa 0,0 l/m 0 min 0 min 0 W/m 6,4 km/h (2 Bft) 97,87 %
13.02.2023 07:18 5,0 C 4,4 C 1,7 C 94 % 1036,9 hPa 0,0 l/m 0 min 0 min 0 W/m 6,4 km/h (2 Bft) 97,87 %
13.02.2023 07:20 5,1 C 4,4 C 1,7 C 94 % 1036,9 hPa 0,0 l/m 0 min 0 min 0 W/m 6,4 km/h (2 Bft) 97,87 %
13.02.2023 07:22 5,1 C 4,4 C 1,7 C 94 % 1036,8 hPa 0,0 l/m 0 min 0 min 0 W/m 6,4 km/h (2 Bft) 100,00 %
13.02.2023 07:24 5,1 C 4,4 C 1,7 C 94 % 1036,8 hPa 0,0 l/m 0 min 0 min 0 W/m 6,4 km/h (2 Bft) 93,48 %
13.02.2023 07:26 5,1 C 4,4 C 1,7 C 94 % 1036,8 hPa 0,0 l/m 0 min 0 min 0 W/m 3,2 km/h (1 Bft) 93,62 %
13.02.2023 07:28 5,2 C 4,4 C 1,7 C 94 % 1036,8 hPa 0,0 l/m 0 min 0 min 0 W/m 6,4 km/h (2 Bft) 87,23 %
13.02.2023 07:30 5,2 C 4,4 C 1,7 C 94 % 1036,9 hPa 0,0 l/m 0 min 0 min 0 W/m 6,4 km/h (2 Bft) 95,74 %
13.02.2023 07:32 5,2 C 4,4 C 1,7 C 94 % 1036,9 hPa 0,0 l/m 0 min 0 min 0 W/m 6,4 km/h (2 Bft) 95,74 %
13.02.2023 07:34 5,2 C 4,4 C 1,7 C 94 % 1036,8 hPa 0,0 l/m 0 min 0 min 0 W/m 6,4 km/h (2 Bft) 100,00 %
13.02.2023 07:36 5,2 C 4,4 C 1,7 C 94 % 1036,8 hPa 0,0 l/m 0 min 0 min 0 W/m 6,4 km/h (2 Bft) 97,83 %
13.02.2023 07:38 5,2 C 4,4 C 1,7 C 94 % 1036,9 hPa 0,0 l/m 0 min 0 min 0 W/m 6,4 km/h (2 Bft) 100,00 %
13.02.2023 07:40 5,2 C 4,4 C 1,7 C 94 % 1036,8 hPa 0,0 l/m 0 min 0 min 0 W/m 3,2 km/h (1 Bft) 100,00 %
13.02.2023 07:42 5,2 C 4,4 C 1,7 C 94 % 1036,9 hPa 0,0 l/m 0 min 0 min 0 W/m 6,4 km/h (2 Bft) 97,87 %
13.02.2023 07:44 5,2 C 4,4 C 1,7 C 94 % 1036,9 hPa 0,0 l/m 0 min 0 min 0 W/m 6,4 km/h (2 Bft) 93,62 %
13.02.2023 07:46 5,2 C 4,4 C 1,7 C 94 % 1036,9 hPa 0,0 l/m 0 min 0 min 0 W/m 6,4 km/h (2 Bft) 95,74 %
13.02.2023 07:48 5,2 C 4,4 C 1,7 C 94 % 1036,9 hPa 0,0 l/m 0 min 0 min 0 W/m 6,4 km/h (2 Bft) 95,65 %
13.02.2023 07:50 5,2 C 4,4 C 1,7 C 94 % 1036,8 hPa 0,0 l/m 0 min 0 min 0 W/m 6,4 km/h (2 Bft) 53,19 %
13.02.2023 07:52 5,3 C 4,4 C 1,7 C 95 % 1036,9 hPa 0,0 l/m 0 min 0 min 3 W/m 3,2 km/h (1 Bft) 93,33 %
13.02.2023 07:54 5,3 C 4,4 C 1,7 C 95 % 1036,8 hPa 0,0 l/m 0 min 0 min 5 W/m 6,4 km/h (2 Bft) 85,11 %
13.02.2023 07:56 5,3 C 4,4 C 1,7 C 95 % 1036,9 hPa 0,0 l/m 0 min 0 min 5 W/m 3,2 km/h (1 Bft) 91,49 %
13.02.2023 07:58 5,3 C 4,4 C 1,7 C 95 % 1036,9 hPa 0,0 l/m 0 min 0 min 6 W/m 0,0 km/h (0 Bft) 95,74 %
13.02.2023 08:00 5,3 C 4,4 C 1,7 C 95 % 1036,8 hPa 0,0 l/m 0 min 0 min 7 W/m 3,2 km/h (1 Bft) 91,49 %
13.02.2023 08:02 5,3 C 4,4 C 1,7 C 95 % 1036,9 hPa 0,0 l/m 0 min 0 min 7 W/m 6,4 km/h (2 Bft) 95,65 %
13.02.2023 08:04 5,3 C 4,4 C 1,7 C 95 % 1036,9 hPa 0,0 l/m 0 min 0 min 9 W/m 3,2 km/h (1 Bft) 95,74 %
13.02.2023 08:06 5,3 C 4,4 C 1,7 C 95 % 1036,9 hPa 0,0 l/m 0 min 0 min 10 W/m 6,4 km/h (2 Bft) 93,22 %
13.02.2023 08:08 5,3 C 4,4 C 1,7 C 95 % 1036,9 hPa 0,0 l/m 0 min 0 min 11 W/m 3,2 km/h (1 Bft) 100,00 %
13.02.2023 08:10 5,3 C 4,4 C 1,7 C 95 % 1036,9 hPa 0,0 l/m 0 min 0 min 11 W/m 3,2 km/h (1 Bft) 89,36 %
13.02.2023 08:12 5,3 C 4,4 C 1,7 C 95 % 1036,9 hPa 0,0 l/m 0 min 0 min 12 W/m 6,4 km/h (2 Bft) 95,74 %
13.02.2023 08:14 5,3 C 4,4 C 1,7 C 95 % 1036,9 hPa 0,0 l/m 0 min 0 min 12 W/m 6,4 km/h (2 Bft) 95,74 %
13.02.2023 08:16 5,3 C 4,4 C 1,7 C 95 % 1037,0 hPa 0,0 l/m 0 min 0 min 13 W/m 6,4 km/h (2 Bft) 93,48 %
13.02.2023 08:18 5,3 C 4,4 C 1,7 C 95 % 1037,0 hPa 0,0 l/m 0 min 0 min 14 W/m 6,4 km/h (2 Bft) 95,74 %
13.02.2023 08:20 5,3 C 4,4 C 1,7 C 95 % 1037,0 hPa 0,0 l/m 0 min 0 min 16 W/m 0,0 km/h (0 Bft) 95,74 %
13.02.2023 08:22 5,3 C 4,4 C 1,7 C 95 % 1037,0 hPa 0,0 l/m 0 min 0 min 16 W/m 0,0 km/h (0 Bft) 93,62 %
13.02.2023 08:24 5,3 C 4,4 C 1,7 C 95 % 1037,0 hPa 0,0 l/m 0 min 0 min 17 W/m 0,0 km/h (0 Bft) 95,83 %
13.02.2023 08:26 5,3 C 5,0 C 1,7 C 95 % 1037,0 hPa 0,0 l/m 0 min 0 min 18 W/m 3,2 km/h (1 Bft) 95,74 %
13.02.2023 08:28 5,3 C 5,0 C 1,7 C 95 % 1037,0 hPa 0,0 l/m 0 min 0 min 18 W/m 6,4 km/h (2 Bft) 95,65 %
13.02.2023 08:30 5,3 C 5,0 C 1,7 C 95 % 1037,0 hPa 0,0 l/m 0 min 0 min 19 W/m 6,4 km/h (2 Bft) 97,87 %
13.02.2023 08:32 5,3 C 5,0 C 2,2 C 95 % 1037,0 hPa 0,0 l/m 0 min 0 min 19 W/m 12,9 km/h (3 Bft) 97,87 %
13.02.2023 08:34 5,4 C 5,0 C 2,2 C 95 % 1037,0 hPa 0,0 l/m 0 min 0 min 20 W/m 6,4 km/h (2 Bft) 97,87 %
13.02.2023 08:36 5,4 C 5,0 C 2,2 C 95 % 1037,0 hPa 0,0 l/m 0 min 0 min 21 W/m 6,4 km/h (2 Bft) 97,87 %
13.02.2023 08:38 5,4 C 5,0 C 2,2 C 95 % 1037,1 hPa 0,0 l/m 0 min 0 min 21 W/m 6,4 km/h (2 Bft) 97,87 %
13.02.2023 08:40 5,4 C 5,0 C 2,2 C 95 % 1037,1 hPa 0,0 l/m 0 min 0 min 23 W/m 6,4 km/h (2 Bft) 95,65 %
13.02.2023 08:42 5,5 C 5,0 C 2,2 C 95 % 1037,1 hPa 0,0 l/m 0 min 0 min 23 W/m 12,9 km/h (3 Bft) 95,74 %
13.02.2023 08:44 5,6 C 5,6 C 2,2 C 95 % 1037,1 hPa 0,0 l/m 0 min 0 min 23 W/m 6,4 km/h (2 Bft) 95,74 %
13.02.2023 08:46 5,6 C 5,6 C 2,2 C 95 % 1037,2 hPa 0,0 l/m 0 min 0 min 25 W/m 12,9 km/h (3 Bft) 95,74 %
13.02.2023 08:48 5,6 C 5,6 C 2,2 C 95 % 1037,1 hPa 0,0 l/m 0 min 0 min 25 W/m 6,4 km/h (2 Bft) 93,62 %
13.02.2023 08:50 5,7 C 5,6 C 2,2 C 95 % 1037,1 hPa 0,0 l/m 0 min 0 min 44 W/m 12,9 km/h (3 Bft) 95,74 %
13.02.2023 08:52 5,7 C 5,6 C 2,2 C 95 % 1037,2 hPa 0,0 l/m 0 min 0 min 52 W/m 6,4 km/h (2 Bft) 98,00 %
13.02.2023 08:54 5,7 C 5,6 C 2,2 C 95 % 1037,1 hPa 0,0 l/m 0 min 0 min 51 W/m 6,4 km/h (2 Bft) 42,86 %
13.02.2023 08:56 5,8 C 5,6 C 2,8 C 95 % 1037,1 hPa 0,0 l/m 0 min 0 min 55 W/m 12,9 km/h (3 Bft) 97,87 %
13.02.2023 08:58 5,8 C 5,6 C 2,8 C 95 % 1037,1 hPa 0,0 l/m 0 min 0 min 63 W/m 6,4 km/h (2 Bft) 97,87 %
13.02.2023 09:00 5,9 C 5,6 C 2,8 C 95 % 1037,1 hPa 0,0 l/m 0 min 0 min 60 W/m 6,4 km/h (2 Bft) 97,87 %
13.02.2023 09:02 5,9 C 6,1 C 2,8 C 95 % 1037,2 hPa 0,0 l/m 0 min 0 min 62 W/m 9,7 km/h (2 Bft) 95,74 %
13.02.2023 09:04 6,0 C 6,1 C 2,8 C 95 % 1037,2 hPa 0,0 l/m 2 min 0 min 87 W/m 12,9 km/h (3 Bft) 97,87 %
13.02.2023 09:06 6,1 C 6,7 C 2,8 C 95 % 1037,2 hPa 0,0 l/m 2 min 0 min 101 W/m 6,4 km/h (2 Bft) 95,65 %
13.02.2023 09:08 6,2 C 7,2 C 2,8 C 95 % 1037,2 hPa 0,0 l/m 2 min 0 min 105 W/m 12,9 km/h (3 Bft) 97,87 %
13.02.2023 09:10 6,2 C 7,8 C 2,8 C 95 % 1037,2 hPa 0,0 l/m 2 min 0 min 92 W/m 12,9 km/h (3 Bft) 97,87 %
13.02.2023 09:12 6,3 C 7,8 C 2,8 C 95 % 1037,2 hPa 0,0 l/m 0 min 0 min 64 W/m 12,9 km/h (3 Bft) 100,00 %
13.02.2023 09:14 6,3 C 7,2 C 2,8 C 95 % 1037,2 hPa 0,0 l/m 2 min 0 min 106 W/m 6,4 km/h (2 Bft) 97,87 %
13.02.2023 09:16 6,4 C 7,2 C 2,8 C 95 % 1037,2 hPa 0,0 l/m 0 min 0 min 85 W/m 9,7 km/h (2 Bft) 97,87 %
13.02.2023 09:18 6,4 C 7,2 C 2,8 C 95 % 1037,3 hPa 0,0 l/m 0 min 0 min 67 W/m 12,9 km/h (3 Bft) 100,00 %
13.02.2023 09:20 6,5 C 7,2 C 2,8 C 95 % 1037,2 hPa 0,0 l/m 0 min 0 min 64 W/m 12,9 km/h (3 Bft) 100,00 %
13.02.2023 09:22 6,5 C 7,2 C 3,3 C 95 % 1037,2 hPa 0,0 l/m 0 min 0 min 53 W/m 16,1 km/h (3 Bft) 100,00 %
13.02.2023 09:24 6,6 C 7,2 C 3,3 C 95 % 1037,2 hPa 0,0 l/m 0 min 0 min 73 W/m 16,1 km/h (3 Bft) 100,00 %
13.02.2023 09:26 6,6 C 7,8 C 3,3 C 95 % 1037,2 hPa 0,0 l/m 0 min 0 min 91 W/m 12,9 km/h (3 Bft) 100,00 %
13.02.2023 09:28 6,7 C 7,8 C 3,3 C 95 % 1037,2 hPa 0,0 l/m 2 min 0 min 113 W/m 12,9 km/h (3 Bft) 100,00 %
13.02.2023 09:30 6,7 C 7,2 C 3,3 C 95 % 1037,2 hPa 0,0 l/m 0 min 0 min 94 W/m 12,9 km/h (3 Bft) 97,87 %
13.02.2023 09:32 6,8 C 7,2 C 3,3 C 95 % 1037,3 hPa 0,0 l/m 0 min 0 min 43 W/m 16,1 km/h (3 Bft) 100,00 %
13.02.2023 09:34 6,8 C 7,8 C 3,3 C 95 % 1037,3 hPa 0,0 l/m 0 min 0 min 53 W/m 12,9 km/h (3 Bft) 100,00 %
13.02.2023 09:36 6,9 C 8,3 C 3,3 C 95 % 1037,3 hPa 0,0 l/m 2 min 0 min 114 W/m 19,3 km/h (3 Bft) 97,87 %
13.02.2023 09:38 6,9 C 7,8 C 3,3 C 94 % 1037,4 hPa 0,0 l/m 2 min 0 min 169 W/m 16,1 km/h (3 Bft) 100,00 %
13.02.2023 09:40 7,0 C 7,8 C 3,3 C 94 % 1037,4 hPa 0,0 l/m 0 min 0 min 71 W/m 12,9 km/h (3 Bft) 100,00 %
13.02.2023 09:42 7,1 C 7,8 C 3,3 C 94 % 1037,4 hPa 0,0 l/m 0 min 0 min 45 W/m 16,1 km/h (3 Bft) 100,00 %
13.02.2023 09:44 7,1 C 7,8 C 3,3 C 94 % 1037,4 hPa 0,0 l/m 0 min 0 min 74 W/m 9,7 km/h (2 Bft) 100,00 %
13.02.2023 09:46 7,1 C 8,3 C 3,9 C 94 % 1037,3 hPa 0,0 l/m 2 min 0 min 148 W/m 16,1 km/h (3 Bft) 100,00 %
13.02.2023 09:48 7,2 C 8,9 C 3,9 C 94 % 1037,3 hPa 0,0 l/m 2 min 0 min 173 W/m 9,7 km/h (2 Bft) 100,00 %
13.02.2023 09:50 7,2 C 9,4 C 3,9 C 93 % 1037,3 hPa 0,0 l/m 2 min 0 min 183 W/m 16,1 km/h (3 Bft) 100,00 %
13.02.2023 09:52 7,3 C 10,0 C 3,9 C 93 % 1037,3 hPa 0,0 l/m 2 min 0 min 158 W/m 12,9 km/h (3 Bft) 100,00 %
13.02.2023 09:54 7,3 C 11,1 C 3,9 C 93 % 1037,3 hPa 0,0 l/m 2 min 0 min 195 W/m 6,4 km/h (2 Bft) 97,87 %
13.02.2023 09:56 7,4 C 11,1 C 3,9 C 93 % 1037,3 hPa 0,0 l/m 2 min 0 min 154 W/m 12,9 km/h (3 Bft) 100,00 %
13.02.2023 09:58 7,5 C 11,7 C 3,9 C 93 % 1037,4 hPa 0,0 l/m 0 min 0 min 60 W/m 16,1 km/h (3 Bft) 100,00 %
13.02.2023 10:00 7,6 C 11,7 C 3,9 C 93 % 1037,3 hPa 0,0 l/m 0 min 0 min 45 W/m 12,9 km/h (3 Bft) 100,00 %
13.02.2023 10:02 7,6 C 11,1 C 3,9 C 92 % 1037,4 hPa 0,0 l/m 0 min 0 min 64 W/m 16,1 km/h (3 Bft) 100,00 %
13.02.2023 10:04 7,7 C 11,1 C 3,9 C 92 % 1037,4 hPa 0,0 l/m 0 min 0 min 138 W/m 12,9 km/h (3 Bft) 100,00 %
13.02.2023 10:06 7,8 C 11,1 C 4,4 C 92 % 1037,3 hPa 0,0 l/m 2 min 0 min 202 W/m 12,9 km/h (3 Bft) 100,00 %
13.02.2023 10:08 7,8 C 11,1 C 4,4 C 91 % 1037,4 hPa 0,0 l/m 2 min 0 min 194 W/m 16,1 km/h (3 Bft) 100,00 %
13.02.2023 10:10 7,9 C 11,7 C 4,4 C 91 % 1037,3 hPa 0,0 l/m 2 min 0 min 169 W/m 12,9 km/h (3 Bft) 97,83 %
13.02.2023 10:12 8,1 C 12,2 C 4,4 C 91 % 1037,3 hPa 0,0 l/m 2 min 0 min 259 W/m 12,9 km/h (3 Bft) 100,00 %
13.02.2023 10:14 8,1 C 13,3 C 4,4 C 91 % 1037,3 hPa 0,0 l/m 2 min 0 min 285 W/m 12,9 km/h (3 Bft) 100,00 %
13.02.2023 10:16 8,2 C 12,8 C 4,4 C 90 % 1037,4 hPa 0,0 l/m 2 min 0 min 290 W/m 16,1 km/h (3 Bft) 97,87 %
13.02.2023 10:18 8,3 C 12,8 C 4,4 C 90 % 1037,3 hPa 0,0 l/m 2 min 0 min 245 W/m 12,9 km/h (3 Bft) 97,87 %
13.02.2023 10:20 8,4 C 12,8 C 4,4 C 89 % 1037,4 hPa 0,0 l/m 2 min 0 min 222 W/m 16,1 km/h (3 Bft) 97,87 %
13.02.2023 10:22 8,5 C 13,9 C 4,4 C 89 % 1037,4 hPa 0,0 l/m 2 min 0 min 261 W/m 16,1 km/h (3 Bft) 100,00 %
13.02.2023 10:24 8,6 C 14,4 C 4,4 C 89 % 1037,3 hPa 0,0 l/m 2 min 0 min 304 W/m 12,9 km/h (3 Bft) 97,83 %
13.02.2023 10:26 8,7 C 15,0 C 4,4 C 88 % 1037,4 hPa 0,0 l/m 2 min 0 min 308 W/m 12,9 km/h (3 Bft) 97,87 %
13.02.2023 10:28 8,8 C 15,6 C 4,4 C 88 % 1037,4 hPa 0,0 l/m 2 min 0 min 271 W/m 12,9 km/h (3 Bft) 97,87 %
13.02.2023 10:30 8,9 C 16,7 C 5,0 C 88 % 1037,4 hPa 0,0 l/m 2 min 0 min 274 W/m 6,4 km/h (2 Bft) 97,87 %
13.02.2023 10:32 9,1 C 16,7 C 5,0 C 87 % 1037,4 hPa 0,0 l/m 2 min 0 min 319 W/m 16,1 km/h (3 Bft) 97,87 %
13.02.2023 10:34 9,1 C 16,1 C 5,0 C 87 % 1037,4 hPa 0,0 l/m 2 min 0 min 312 W/m 12,9 km/h (3 Bft) 97,87 %
13.02.2023 10:36 9,2 C 16,7 C 5,0 C 86 % 1037,4 hPa 0,0 l/m 2 min 0 min 301 W/m 12,9 km/h (3 Bft) 97,83 %
13.02.2023 10:38 9,3 C 16,7 C 5,0 C 86 % 1037,4 hPa 0,0 l/m 2 min 0 min 231 W/m 12,9 km/h (3 Bft) 97,87 %
13.02.2023 10:40 9,4 C 17,2 C 5,0 C 85 % 1037,5 hPa 0,0 l/m 2 min 0 min 292 W/m 16,1 km/h (3 Bft) 97,87 %
13.02.2023 10:42 9,4 C 17,8 C 5,0 C 85 % 1037,5 hPa 0,0 l/m 2 min 0 min 262 W/m 6,4 km/h (2 Bft) 91,49 %
13.02.2023 10:44 9,6 C 17,2 C 5,0 C 85 % 1037,5 hPa 0,0 l/m 2 min 0 min 267 W/m 16,1 km/h (3 Bft) 95,74 %
13.02.2023 10:46 9,6 C 16,7 C 5,0 C 84 % 1037,5 hPa 0,0 l/m 2 min 0 min 282 W/m 16,1 km/h (3 Bft) 95,74 %
13.02.2023 10:48 9,7 C 16,7 C 5,0 C 84 % 1037,5 hPa 0,0 l/m 2 min 0 min 347 W/m 12,9 km/h (3 Bft) 97,83 %
13.02.2023 10:50 9,8 C 19,4 C 5,0 C 84 % 1037,6 hPa 0,0 l/m 2 min 0 min 358 W/m 3,2 km/h (1 Bft) 97,87 %
13.02.2023 10:52 9,9 C 19,4 C 5,6 C 84 % 1037,6 hPa 0,0 l/m 2 min 0 min 362 W/m 6,4 km/h (2 Bft) 95,74 %
13.02.2023 10:54 10,1 C 18,3 C 5,6 C 83 % 1037,5 hPa 0,0 l/m 2 min 0 min 366 W/m 19,3 km/h (3 Bft) 95,74 %
13.02.2023 10:56 10,1 C 18,3 C 5,6 C 82 % 1037,6 hPa 0,0 l/m 2 min 0 min 368 W/m 9,7 km/h (2 Bft) 95,74 %
13.02.2023 10:58 10,2 C 19,4 C 5,6 C 82 % 1037,6 hPa 0,0 l/m 2 min 0 min 371 W/m 12,9 km/h (3 Bft) 95,74 %
13.02.2023 11:00 10,3 C 19,4 C 5,6 C 82 % 1037,6 hPa 0,0 l/m 2 min 0 min 375 W/m 16,1 km/h (3 Bft) 95,74 %
13.02.2023 11:02 10,4 C 18,3 C 5,6 C 81 % 1037,5 hPa 0,0 l/m 2 min 0 min 378 W/m 16,1 km/h (3 Bft) 91,49 %
13.02.2023 11:04 10,4 C 18,9 C 5,6 C 80 % 1037,6 hPa 0,0 l/m 2 min 0 min 381 W/m 12,9 km/h (3 Bft) 95,74 %
13.02.2023 11:06 10,5 C 18,9 C 5,6 C 80 % 1037,6 hPa 0,0 l/m 2 min 0 min 383 W/m 12,9 km/h (3 Bft) 95,74 %
13.02.2023 11:08 10,6 C 19,4 C 5,6 C 80 % 1037,6 hPa 0,0 l/m 2 min 0 min 387 W/m 12,9 km/h (3 Bft) 95,74 %
13.02.2023 11:10 10,6 C 19,4 C 5,6 C 80 % 1037,6 hPa 0,0 l/m 2 min 0 min 390 W/m 12,9 km/h (3 Bft) 97,87 %
13.02.2023 11:12 10,7 C 19,4 C 5,6 C 79 % 1037,5 hPa 0,0 l/m 2 min 0 min 393 W/m 12,9 km/h (3 Bft) 94,29 %
13.02.2023 11:14 10,8 C 18,9 C 6,1 C 79 % 1037,6 hPa 0,0 l/m 2 min 0 min 396 W/m 12,9 km/h (3 Bft) 98,11 %
13.02.2023 11:16 10,8 C 18,3 C 6,1 C 78 % 1037,6 hPa 0,0 l/m 2 min 0 min 398 W/m 16,1 km/h (3 Bft) 96,00 %
13.02.2023 11:18 10,8 C 18,9 C 6,1 C 78 % 1037,6 hPa 0,0 l/m 2 min 0 min 400 W/m 12,9 km/h (3 Bft) 97,96 %
13.02.2023 11:20 10,9 C 18,9 C 6,1 C 78 % 1037,6 hPa 0,0 l/m 2 min 0 min 405 W/m 12,9 km/h (3 Bft) 93,62 %
13.02.2023 11:22 10,9 C 19,4 C 6,1 C 78 % 1037,5 hPa 0,0 l/m 2 min 0 min 406 W/m 9,7 km/h (2 Bft) 97,87 %
13.02.2023 11:24 11,0 C 18,9 C 6,1 C 78 % 1037,5 hPa 0,0 l/m 2 min 0 min 411 W/m 12,9 km/h (3 Bft) 100,00 %
13.02.2023 11:26 11,0 C 19,4 C 6,1 C 78 % 1037,6 hPa 0,0 l/m 2 min 0 min 414 W/m 12,9 km/h (3 Bft) 95,65 %
13.02.2023 11:28 11,1 C 19,4 C 6,1 C 78 % 1037,5 hPa 0,0 l/m 2 min 0 min 416 W/m 6,4 km/h (2 Bft) 100,00 %
13.02.2023 11:30 11,1 C 20,6 C 6,7 C 77 % 1037,5 hPa 0,0 l/m 2 min 0 min 417 W/m 9,7 km/h (2 Bft) 100,00 %
13.02.2023 11:32 11,2 C 20,6 C 6,7 C 77 % 1037,6 hPa 0,0 l/m 2 min 0 min 418 W/m 9,7 km/h (2 Bft) 100,00 %
13.02.2023 11:34 11,2 C 20,0 C 6,7 C 77 % 1037,6 hPa 0,0 l/m 2 min 0 min 422 W/m 12,9 km/h (3 Bft) 100,00 %
13.02.2023 11:36 11,3 C 18,9 C 6,7 C 77 % 1037,6 hPa 0,0 l/m 2 min 0 min 424 W/m 9,7 km/h (2 Bft) 100,00 %
13.02.2023 11:38 11,3 C 18,3 C 7,2 C 77 % 1037,6 hPa 0,0 l/m 2 min 0 min 425 W/m 6,4 km/h (2 Bft) 100,00 %
13.02.2023 11:40 11,4 C 17,8 C 7,8 C 77 % 1037,6 hPa 0,0 l/m 2 min 0 min 412 W/m 6,4 km/h (2 Bft) 100,00 %
13.02.2023 11:42 11,4 C 17,2 C 7,8 C 76 % 1037,6 hPa 0,0 l/m 2 min 0 min 336 W/m 12,9 km/h (3 Bft) 100,00 %
13.02.2023 11:44 11,4 C 16,7 C 8,3 C 76 % 1037,5 hPa 0,0 l/m 2 min 0 min 320 W/m 12,9 km/h (3 Bft) 100,00 %
13.02.2023 11:46 11,5 C 15,6 C 8,9 C 76 % 1037,5 hPa 0,0 l/m 2 min 0 min 361 W/m 12,9 km/h (3 Bft) 100,00 %
13.02.2023 11:48 11,4 C 15,0 C 8,9 C 75 % 1037,5 hPa 0,0 l/m 2 min 0 min 341 W/m 9,7 km/h (2 Bft) 100,00 %
13.02.2023 11:50 11,4 C 15,6 C 9,4 C 76 % 1037,4 hPa 0,0 l/m 2 min 0 min 239 W/m 12,9 km/h (3 Bft) 100,00 %
13.02.2023 11:52 11,4 C 15,0 C 9,4 C 75 % 1037,4 hPa 0,0 l/m 2 min 0 min 292 W/m 16,1 km/h (3 Bft) 100,00 %
13.02.2023 11:54 11,4 C 14,4 C 9,4 C 75 % 1037,4 hPa 0,0 l/m 2 min 0 min 220 W/m 12,9 km/h (3 Bft) 95,74 %
13.02.2023 11:56 11,4 C 13,9 C 9,4 C 76 % 1037,5 hPa 0,0 l/m 0 min 0 min 142 W/m 12,9 km/h (3 Bft) 100,00 %
13.02.2023 11:58 11,4 C 13,9 C 8,9 C 76 % 1037,4 hPa 0,0 l/m 0 min 0 min 167 W/m 16,1 km/h (3 Bft) 97,87 %
13.02.2023 12:00 11,4 C 14,4 C 8,9 C 76 % 1037,5 hPa 0,0 l/m 2 min 0 min 256 W/m 6,4 km/h (2 Bft) 100,00 %
13.02.2023 12:02 11,4 C 15,0 C 8,9 C 76 % 1037,4 hPa 0,0 l/m 0 min 0 min 149 W/m 12,9 km/h (3 Bft) 97,87 %
13.02.2023 12:04 11,4 C 16,1 C 8,9 C 76 % 1037,4 hPa 0,0 l/m 0 min 0 min 83 W/m 6,4 km/h (2 Bft) 100,00 %
13.02.2023 12:07 11,4 C 15,6 C 8,9 C 76 % 1037,4 hPa 0,0 l/m 0 min 0 min 64 W/m 12,9 km/h (3 Bft) 98,59 %
13.02.2023 12:08 11,4 C 14,4 C 8,9 C 76 % 1037,4 hPa 0,0 l/m 0 min 0 min 52 W/m 9,7 km/h (2 Bft) 100,00 %
13.02.2023 12:12 11,4 C 12,8 C 7,8 C 76 % 1037,3 hPa 0,0 l/m 0 min 0 min 51 W/m 12,9 km/h (3 Bft) 96,00 %
13.02.2023 12:14 11,4 C 12,2 C 7,8 C 76 % 1037,3 hPa 0,0 l/m 0 min 0 min 65 W/m 12,9 km/h (3 Bft) 97,87 %
13.02.2023 12:16 11,4 C 12,2 C 7,8 C 76 % 1037,2 hPa 0,0 l/m 0 min 0 min 87 W/m 9,7 km/h (2 Bft) 100,00 %
13.02.2023 12:18 11,4 C 12,2 C 8,3 C 76 % 1037,1 hPa 0,0 l/m 0 min 0 min 127 W/m 16,1 km/h (3 Bft) 100,00 %
13.02.2023 12:20 11,4 C 13,3 C 8,9 C 76 % 1037,1 hPa 0,0 l/m 0 min 0 min 164 W/m 12,9 km/h (3 Bft) 97,83 %
13.02.2023 12:22 11,4 C 13,9 C 9,4 C 76 % 1037,0 hPa 0,0 l/m 2 min 0 min 220 W/m 12,9 km/h (3 Bft) 100,00 %
13.02.2023 12:24 11,4 C 15,6 C 9,4 C 76 % 1037,0 hPa 0,0 l/m 0 min 0 min 104 W/m 6,4 km/h (2 Bft) 100,00 %
13.02.2023 12:26 11,4 C 14,4 C 9,4 C 76 % 1037,0 hPa 0,0 l/m 0 min 0 min 81 W/m 16,1 km/h (3 Bft) 100,00 %
13.02.2023 12:28 11,4 C 13,9 C 9,4 C 76 % 1037,0 hPa 0,0 l/m 0 min 0 min 64 W/m 9,7 km/h (2 Bft) 100,00 %
13.02.2023 12:30 11,4 C 13,9 C 9,4 C 76 % 1037,0 hPa 0,0 l/m 0 min 0 min 70 W/m 9,7 km/h (2 Bft) 100,00 %
13.02.2023 12:32 11,4 C 14,4 C 10,6 C 76 % 1036,9 hPa 0,0 l/m 0 min 0 min 89 W/m 12,9 km/h (3 Bft) 97,83 %
13.02.2023 12:34 11,4 C 14,4 C 10,0 C 76 % 1037,0 hPa 0,0 l/m 0 min 0 min 148 W/m 12,9 km/h (3 Bft) 100,00 %
13.02.2023 12:36 11,4 C 14,4 C 8,9 C 76 % 1036,9 hPa 0,0 l/m 0 min 0 min 121 W/m 9,7 km/h (2 Bft) 97,87 %
13.02.2023 12:38 11,4 C 14,4 C 8,9 C 76 % 1036,9 hPa 0,0 l/m 0 min 0 min 143 W/m 6,4 km/h (2 Bft) 100,00 %
13.02.2023 12:40 11,4 C 14,4 C 8,3 C 76 % 1036,9 hPa 0,0 l/m 0 min 0 min 164 W/m 6,4 km/h (2 Bft) 100,00 %
13.02.2023 12:42 11,4 C 13,9 C 8,3 C 76 % 1036,9 hPa 0,0 l/m 2 min 0 min 265 W/m 6,4 km/h (2 Bft) 100,00 %
13.02.2023 12:44 11,4 C 13,9 C 7,8 C 76 % 1036,9 hPa 0,0 l/m 2 min 0 min 308 W/m 6,4 km/h (2 Bft) 97,87 %
13.02.2023 12:46 11,5 C 14,4 C 7,8 C 76 % 1036,8 hPa 0,0 l/m 2 min 0 min 326 W/m 6,4 km/h (2 Bft) 95,65 %
13.02.2023 12:48 11,6 C 15,0 C 7,8 C 76 % 1036,8 hPa 0,0 l/m 0 min 0 min 194 W/m 6,4 km/h (2 Bft) 97,87 %
13.02.2023 12:50 11,6 C 15,6 C 7,8 C 76 % 1036,8 hPa 0,0 l/m 2 min 0 min 290 W/m 3,2 km/h (1 Bft) 97,87 %
13.02.2023 12:52 11,7 C 15,0 C 7,8 C 76 % 1036,8 hPa 0,0 l/m 2 min 0 min 318 W/m 16,1 km/h (3 Bft) 93,62 %
13.02.2023 12:54 11,7 C 15,6 C 7,8 C 75 % 1036,8 hPa 0,0 l/m 2 min 0 min 286 W/m 9,7 km/h (2 Bft) 97,87 %
13.02.2023 12:56 11,8 C 16,7 C 7,8 C 75 % 1036,8 hPa 0,0 l/m 2 min 0 min 399 W/m 6,4 km/h (2 Bft) 97,87 %
13.02.2023 12:58 11,9 C 17,8 C 7,8 C 75 % 1036,8 hPa 0,0 l/m 2 min 0 min 451 W/m 9,7 km/h (2 Bft) 95,65 %
13.02.2023 13:00 11,9 C 17,8 C 7,8 C 75 % 1036,7 hPa 0,0 l/m 2 min 0 min 465 W/m 12,9 km/h (3 Bft) 97,87 %
13.02.2023 13:02 12,0 C 18,3 C 7,8 C 75 % 1036,7 hPa 0,0 l/m 2 min 0 min 465 W/m 6,4 km/h (2 Bft) 93,62 %
13.02.2023 13:04 12,1 C 18,3 C 7,8 C 74 % 1036,6 hPa 0,0 l/m 2 min 0 min 466 W/m 9,7 km/h (2 Bft) 95,74 %
13.02.2023 13:06 12,2 C 19,4 C 7,8 C 74 % 1036,7 hPa 0,0 l/m 2 min 0 min 464 W/m 6,4 km/h (2 Bft) 96,61 %
13.02.2023 13:08 12,2 C 21,1 C 7,8 C 74 % 1036,6 hPa 0,0 l/m 2 min 0 min 464 W/m 6,4 km/h (2 Bft) 94,29 %
13.02.2023 13:10 12,3 C 22,2 C 7,8 C 74 % 1036,6 hPa 0,0 l/m 2 min 0 min 464 W/m 6,4 km/h (2 Bft) 95,74 %
13.02.2023 13:12 12,5 C 23,3 C 7,8 C 73 % 1036,6 hPa 0,0 l/m 2 min 0 min 464 W/m 6,4 km/h (2 Bft) 95,74 %
13.02.2023 13:14 12,6 C 23,3 C 7,8 C 73 % 1036,6 hPa 0,0 l/m 2 min 0 min 463 W/m 3,2 km/h (1 Bft) 95,65 %
13.02.2023 13:16 12,8 C 22,8 C 7,8 C 73 % 1036,5 hPa 0,0 l/m 2 min 0 min 463 W/m 6,4 km/h (2 Bft) 100,00 %
13.02.2023 13:18 12,9 C 23,3 C 7,8 C 72 % 1036,5 hPa 0,0 l/m 2 min 0 min 462 W/m 6,4 km/h (2 Bft) 95,74 %
13.02.2023 13:20 13,0 C 23,3 C 8,3 C 72 % 1036,5 hPa 0,0 l/m 2 min 0 min 461 W/m 9,7 km/h (2 Bft) 93,62 %
13.02.2023 13:22 13,1 C 23,9 C 7,8 C 72 % 1036,5 hPa 0,0 l/m 2 min 0 min 459 W/m 6,4 km/h (2 Bft) 95,74 %
13.02.2023 13:24 13,2 C 23,9 C 7,8 C 72 % 1036,5 hPa 0,0 l/m 2 min 0 min 460 W/m 6,4 km/h (2 Bft) 93,62 %
13.02.2023 13:26 13,3 C 23,9 C 7,8 C 72 % 1036,5 hPa 0,0 l/m 2 min 0 min 456 W/m 6,4 km/h (2 Bft) 95,65 %
13.02.2023 13:28 13,5 C 23,9 C 8,3 C 72 % 1036,5 hPa 0,0 l/m 2 min 0 min 455 W/m 3,2 km/h (1 Bft) 95,74 %
13.02.2023 13:30 13,5 C 23,3 C 8,3 C 71 % 1036,4 hPa 0,0 l/m 2 min 0 min 455 W/m 6,4 km/h (2 Bft) 93,62 %
13.02.2023 13:32 13,6 C 23,3 C 8,3 C 71 % 1036,4 hPa 0,0 l/m 2 min 0 min 453 W/m 9,7 km/h (2 Bft) 95,74 %
13.02.2023 13:34 13,6 C 21,7 C 8,3 C 71 % 1036,4 hPa 0,0 l/m 2 min 0 min 450 W/m 12,9 km/h (3 Bft) 95,74 %
13.02.2023 13:36 13,6 C 21,1 C 8,3 C 70 % 1036,4 hPa 0,0 l/m 2 min 0 min 448 W/m 9,7 km/h (2 Bft) 93,62 %
13.02.2023 13:38 13,6 C 22,8 C 8,3 C 70 % 1036,4 hPa 0,0 l/m 2 min 0 min 446 W/m 6,4 km/h (2 Bft) 93,48 %
13.02.2023 13:40 13,6 C 22,2 C 8,3 C 70 % 1036,3 hPa 0,0 l/m 2 min 0 min 445 W/m 12,9 km/h (3 Bft) 95,74 %
13.02.2023 13:42 13,7 C 22,8 C 8,3 C 70 % 1036,3 hPa 0,0 l/m 2 min 0 min 444 W/m 6,4 km/h (2 Bft) 91,49 %
13.02.2023 13:44 13,7 C 22,8 C 8,3 C 70 % 1036,2 hPa 0,0 l/m 2 min 0 min 446 W/m 3,2 km/h (1 Bft) 95,74 %
13.02.2023 13:46 13,7 C 21,7 C 8,3 C 70 % 1036,3 hPa 0,0 l/m 2 min 0 min 444 W/m 6,4 km/h (2 Bft) 95,74 %
13.02.2023 13:48 13,7 C 20,6 C 7,8 C 70 % 1036,3 hPa 0,0 l/m 2 min 0 min 442 W/m 6,4 km/h (2 Bft) 95,74 %
13.02.2023 13:50 13,7 C 20,0 C 8,3 C 69 % 1036,3 hPa 0,0 l/m 2 min 0 min 439 W/m 9,7 km/h (2 Bft) 95,74 %
13.02.2023 13:52 13,7 C 19,4 C 8,3 C 70 % 1036,3 hPa 0,0 l/m 2 min 0 min 437 W/m 6,4 km/h (2 Bft) 95,65 %
13.02.2023 13:54 13,7 C 18,3 C 8,3 C 69 % 1036,3 hPa 0,0 l/m 2 min 0 min 434 W/m 12,9 km/h (3 Bft) 95,74 %
13.02.2023 13:56 13,7 C 17,8 C 7,8 C 69 % 1036,4 hPa 0,0 l/m 2 min 0 min 432 W/m 6,4 km/h (2 Bft) 93,62 %
13.02.2023 13:58 13,6 C 16,7 C 7,8 C 69 % 1036,3 hPa 0,0 l/m 2 min 0 min 431 W/m 12,9 km/h (3 Bft) 93,62 %
13.02.2023 14:00 13,6 C 16,1 C 7,8 C 69 % 1036,3 hPa 0,0 l/m 2 min 0 min 429 W/m 12,9 km/h (3 Bft) 95,74 %
13.02.2023 14:02 13,6 C 16,7 C 7,8 C 70 % 1036,2 hPa 0,0 l/m 2 min 0 min 425 W/m 6,4 km/h (2 Bft) 95,74 %
13.02.2023 14:04 13,7 C 17,8 C 7,8 C 70 % 1036,2 hPa 0,0 l/m 2 min 0 min 425 W/m 6,4 km/h (2 Bft) 100,00 %
13.02.2023 14:06 13,7 C 18,3 C 7,8 C 70 % 1036,2 hPa 0,0 l/m 2 min 0 min 424 W/m 6,4 km/h (2 Bft) 96,61 %
13.02.2023 14:08 13,7 C 17,8 C 7,8 C 69 % 1036,1 hPa 0,0 l/m 2 min 0 min 421 W/m 9,7 km/h (2 Bft) 100,00 %
13.02.2023 14:10 13,7 C 16,7 C 7,8 C 70 % 1036,1 hPa 0,0 l/m 2 min 0 min 420 W/m 6,4 km/h (2 Bft) 100,00 %
13.02.2023 14:12 13,7 C 16,7 C 7,8 C 70 % 1036,1 hPa 0,0 l/m 2 min 0 min 417 W/m 12,9 km/h (3 Bft) 97,87 %
13.02.2023 14:14 13,7 C 16,7 C 7,8 C 69 % 1036,0 hPa 0,0 l/m 2 min 0 min 415 W/m 6,4 km/h (2 Bft) 100,00 %
13.02.2023 14:16 13,7 C 17,2 C 7,8 C 70 % 1036,1 hPa 0,0 l/m 2 min 0 min 413 W/m 6,4 km/h (2 Bft) 97,87 %
13.02.2023 14:18 13,7 C 16,7 C 7,8 C 70 % 1036,0 hPa 0,0 l/m 2 min 0 min 410 W/m 6,4 km/h (2 Bft) 97,83 %
13.02.2023 14:20 13,6 C 16,7 C 7,8 C 69 % 1036,0 hPa 0,0 l/m 2 min 0 min 408 W/m 9,7 km/h (2 Bft) 100,00 %
13.02.2023 14:22 13,6 C 17,2 C 7,8 C 69 % 1036,0 hPa 0,0 l/m 2 min 0 min 406 W/m 6,4 km/h (2 Bft) 100,00 %
13.02.2023 14:24 13,6 C 17,2 C 7,8 C 69 % 1036,0 hPa 0,0 l/m 2 min 0 min 404 W/m 9,7 km/h (2 Bft) 100,00 %
13.02.2023 14:26 13,6 C 17,8 C 7,8 C 70 % 1035,9 hPa 0,0 l/m 2 min 0 min 402 W/m 6,4 km/h (2 Bft) 97,87 %
13.02.2023 14:28 13,6 C 17,8 C 7,8 C 70 % 1035,9 hPa 0,0 l/m 2 min 0 min 399 W/m 6,4 km/h (2 Bft) 93,62 %
13.02.2023 14:30 13,6 C 17,2 C 7,8 C 70 % 1036,0 hPa 0,0 l/m 2 min 0 min 395 W/m 6,4 km/h (2 Bft) 100,00 %
13.02.2023 14:32 13,7 C 17,2 C 7,8 C 70 % 1035,9 hPa 0,0 l/m 2 min 0 min 390 W/m 9,7 km/h (2 Bft) 100,00 %
13.02.2023 14:34 13,7 C 17,8 C 7,8 C 70 % 1035,9 hPa 0,0 l/m 2 min 0 min 387 W/m 6,4 km/h (2 Bft) 100,00 %
13.02.2023 14:36 13,7 C 17,2 C 7,8 C 70 % 1035,8 hPa 0,0 l/m 2 min 0 min 386 W/m 6,4 km/h (2 Bft) 97,87 %
13.02.2023 14:38 13,8 C 16,7 C 8,3 C 70 % 1035,9 hPa 0,0 l/m 2 min 0 min 383 W/m 6,4 km/h (2 Bft) 100,00 %
13.02.2023 14:40 13,8 C 16,1 C 8,3 C 69 % 1035,8 hPa 0,0 l/m 2 min 0 min 380 W/m 12,9 km/h (3 Bft) 97,87 %
13.02.2023 14:42 13,8 C 16,7 C 8,3 C 69 % 1035,8 hPa 0,0 l/m 2 min 0 min 376 W/m 12,9 km/h (3 Bft) 100,00 %
13.02.2023 14:44 13,8 C 16,7 C 8,3 C 69 % 1035,8 hPa 0,0 l/m 2 min 0 min 373 W/m 12,9 km/h (3 Bft) 100,00 %
13.02.2023 14:46 13,8 C 16,7 C 8,3 C 68 % 1035,7 hPa 0,0 l/m 2 min 0 min 372 W/m 6,4 km/h (2 Bft) 100,00 %
13.02.2023 14:48 13,8 C 16,7 C 7,8 C 69 % 1035,7 hPa 0,0 l/m 2 min 0 min 367 W/m 6,4 km/h (2 Bft) 100,00 %
13.02.2023 14:50 13,8 C 16,1 C 7,8 C 69 % 1035,7 hPa 0,0 l/m 2 min 0 min 297 W/m 12,9 km/h (3 Bft) 100,00 %
13.02.2023 14:52 13,8 C 16,1 C 8,3 C 68 % 1035,7 hPa 0,0 l/m 2 min 0 min 324 W/m 6,4 km/h (2 Bft) 97,87 %
13.02.2023 14:54 13,8 C 16,1 C 8,3 C 69 % 1035,6 hPa 0,0 l/m 2 min 0 min 356 W/m 6,4 km/h (2 Bft) 100,00 %
13.02.2023 14:56 13,8 C 16,1 C 7,8 C 69 % 1035,7 hPa 0,0 l/m 2 min 0 min 353 W/m 6,4 km/h (2 Bft) 100,00 %
13.02.2023 14:58 13,9 C 16,1 C 8,3 C 69 % 1035,6 hPa 0,0 l/m 2 min 0 min 349 W/m 9,7 km/h (2 Bft) 100,00 %
13.02.2023 15:00 13,8 C 16,1 C 8,3 C 68 % 1035,6 hPa 0,0 l/m 2 min 0 min 345 W/m 12,9 km/h (3 Bft) 100,00 %
13.02.2023 15:02 13,9 C 16,7 C 8,3 C 69 % 1035,6 hPa 0,0 l/m 2 min 0 min 342 W/m 6,4 km/h (2 Bft) 97,87 %
13.02.2023 15:04 13,8 C 17,2 C 8,3 C 68 % 1035,6 hPa 0,0 l/m 2 min 0 min 338 W/m 6,4 km/h (2 Bft) 97,87 %
13.02.2023 15:06 13,9 C 17,2 C 8,3 C 69 % 1035,6 hPa 0,0 l/m 2 min 0 min 334 W/m 6,4 km/h (2 Bft) 91,38 %
13.02.2023 15:08 13,9 C 17,8 C 8,3 C 68 % 1035,6 hPa 0,0 l/m 2 min 0 min 330 W/m 6,4 km/h (2 Bft) 75,00 %
13.02.2023 15:10 13,9 C 17,8 C 8,3 C 68 % 1035,7 hPa 0,0 l/m 2 min 0 min 326 W/m 6,4 km/h (2 Bft) 97,83 %
13.02.2023 15:12 13,9 C 17,2 C 8,3 C 69 % 1035,6 hPa 0,0 l/m 2 min 0 min 252 W/m 6,4 km/h (2 Bft) 100,00 %
13.02.2023 15:14 13,8 C 16,7 C 8,3 C 69 % 1035,6 hPa 0,0 l/m 2 min 0 min 291 W/m 9,7 km/h (2 Bft) 95,74 %
13.02.2023 15:16 13,8 C 16,1 C 8,3 C 69 % 1035,6 hPa 0,0 l/m 2 min 0 min 315 W/m 3,2 km/h (1 Bft) 95,74 %
13.02.2023 15:18 13,8 C 16,1 C 8,3 C 69 % 1035,6 hPa 0,0 l/m 2 min 0 min 310 W/m 6,4 km/h (2 Bft) 97,87 %
13.02.2023 15:20 13,8 C 15,6 C 8,3 C 69 % 1035,5 hPa 0,0 l/m 2 min 0 min 307 W/m 6,4 km/h (2 Bft) 100,00 %
13.02.2023 15:22 13,7 C 15,0 C 8,3 C 69 % 1035,5 hPa 0,0 l/m 2 min 0 min 304 W/m 6,4 km/h (2 Bft) 100,00 %
13.02.2023 15:24 13,8 C 15,0 C 8,3 C 69 % 1035,5 hPa 0,0 l/m 2 min 0 min 300 W/m 9,7 km/h (2 Bft) 97,83 %
13.02.2023 15:26 13,8 C 15,0 C 7,8 C 69 % 1035,5 hPa 0,0 l/m 2 min 0 min 259 W/m 6,4 km/h (2 Bft) 97,87 %
13.02.2023 15:28 13,8 C 14,4 C 7,8 C 69 % 1035,5 hPa 0,0 l/m 2 min 0 min 269 W/m 6,4 km/h (2 Bft) 97,87 %
13.02.2023 15:30 13,7 C 15,0 C 7,8 C 69 % 1035,5 hPa 0,0 l/m 2 min 0 min 286 W/m 6,4 km/h (2 Bft) 100,00 %
13.02.2023 15:32 13,8 C 15,6 C 7,8 C 69 % 1035,4 hPa 0,0 l/m 2 min 0 min 229 W/m 3,2 km/h (1 Bft) 100,00 %
13.02.2023 15:34 13,8 C 15,6 C 7,8 C 69 % 1035,5 hPa 0,0 l/m 2 min 0 min 197 W/m 6,4 km/h (2 Bft) 97,87 %
13.02.2023 15:36 13,8 C 15,6 C 7,8 C 69 % 1035,4 hPa 0,0 l/m 2 min 0 min 267 W/m 6,4 km/h (2 Bft) 97,83 %
13.02.2023 15:38 13,7 C 15,0 C 7,8 C 69 % 1035,4 hPa 0,0 l/m 2 min 0 min 266 W/m 6,4 km/h (2 Bft) 97,87 %
13.02.2023 15:40 13,8 C 15,0 C 7,8 C 68 % 1035,4 hPa 0,0 l/m 2 min 0 min 260 W/m 3,2 km/h (1 Bft) 97,87 %
13.02.2023 15:42 13,8 C 14,4 C 7,8 C 68 % 1035,4 hPa 0,0 l/m 2 min 0 min 255 W/m 3,2 km/h (1 Bft) 93,62 %
13.02.2023 15:44 13,8 C 13,9 C 7,8 C 68 % 1035,4 hPa 0,0 l/m 2 min 0 min 249 W/m 6,4 km/h (2 Bft) 95,74 %
13.02.2023 15:46 13,8 C 13,9 C 7,8 C 68 % 1035,4 hPa 0,0 l/m 2 min 0 min 239 W/m 12,9 km/h (3 Bft) 95,74 %
13.02.2023 15:48 13,8 C 13,3 C 7,8 C 68 % 1035,3 hPa 0,0 l/m 2 min 0 min 175 W/m 6,4 km/h (2 Bft) 95,74 %
13.02.2023 15:50 13,8 C 13,3 C 7,8 C 68 % 1035,3 hPa 0,0 l/m 2 min 0 min 218 W/m 0,0 km/h (0 Bft) 95,65 %
13.02.2023 15:52 13,8 C 13,3 C 7,8 C 68 % 1035,3 hPa 0,0 l/m 2 min 0 min 223 W/m 0,0 km/h (0 Bft) 95,74 %
13.02.2023 15:54 13,8 C 12,8 C 7,8 C 68 % 1035,3 hPa 0,0 l/m 2 min 0 min 220 W/m 0,0 km/h (0 Bft) 95,74 %
13.02.2023 15:56 13,9 C 12,8 C 7,8 C 68 % 1035,3 hPa 0,0 l/m 2 min 0 min 214 W/m 0,0 km/h (0 Bft) 93,62 %
13.02.2023 15:58 13,8 C 12,8 C 7,8 C 68 % 1035,3 hPa 0,0 l/m 2 min 0 min 210 W/m 0,0 km/h (0 Bft) 93,62 %
13.02.2023 16:00 13,8 C 12,8 C 7,8 C 68 % 1035,3 hPa 0,0 l/m 2 min 0 min 204 W/m 0,0 km/h (0 Bft) 93,62 %
13.02.2023 16:02 13,8 C 12,2 C 7,8 C 68 % 1035,3 hPa 0,0 l/m 2 min 0 min 142 W/m 0,0 km/h (0 Bft) 93,62 %
13.02.2023 16:04 13,8 C 12,2 C 7,8 C 68 % 1035,3 hPa 0,0 l/m 2 min 0 min 175 W/m 0,0 km/h (0 Bft) 93,48 %
13.02.2023 16:06 13,7 C 12,2 C 7,2 C 68 % 1035,3 hPa 0,0 l/m 2 min 0 min 173 W/m 0,0 km/h (0 Bft) 94,92 %
13.02.2023 16:08 13,7 C 12,2 C 7,2 C 68 % 1035,3 hPa 0,0 l/m 0 min 0 min 81 W/m 0,0 km/h (0 Bft) 94,29 %
13.02.2023 16:10 13,7 C 12,2 C 7,2 C 68 % 1035,3 hPa 0,0 l/m 0 min 0 min 46 W/m 6,4 km/h (2 Bft) 95,74 %
13.02.2023 16:12 13,7 C 12,2 C 7,8 C 68 % 1035,2 hPa 0,0 l/m 0 min 0 min 40 W/m 6,4 km/h (2 Bft) 95,74 %
13.02.2023 16:14 13,6 C 12,2 C 7,2 C 68 % 1035,2 hPa 0,0 l/m 0 min 0 min 39 W/m 3,2 km/h (1 Bft) 93,62 %
13.02.2023 16:16 13,6 C 12,2 C 7,2 C 68 % 1035,2 hPa 0,0 l/m 0 min 0 min 38 W/m 3,2 km/h (1 Bft) 89,13 %
13.02.2023 16:18 13,5 C 12,2 C 7,2 C 69 % 1035,2 hPa 0,0 l/m 0 min 0 min 36 W/m 3,2 km/h (1 Bft) 93,62 %
13.02.2023 16:20 13,4 C 12,2 C 7,2 C 68 % 1035,2 hPa 0,0 l/m 0 min 0 min 33 W/m 3,2 km/h (1 Bft) 93,62 %
13.02.2023 16:22 13,4 C 12,2 C 7,2 C 68 % 1035,2 hPa 0,0 l/m 0 min 0 min 32 W/m 3,2 km/h (1 Bft) 93,62 %
13.02.2023 16:24 13,4 C 12,2 C 7,2 C 69 % 1035,1 hPa 0,0 l/m 0 min 0 min 32 W/m 0,0 km/h (0 Bft) 95,74 %
13.02.2023 16:26 13,3 C 12,2 C 7,2 C 68 % 1035,1 hPa 0,0 l/m 0 min 0 min 31 W/m 0,0 km/h (0 Bft) 93,62 %
13.02.2023 16:28 13,3 C 12,2 C 7,2 C 68 % 1035,1 hPa 0,0 l/m 0 min 0 min 30 W/m 0,0 km/h (0 Bft) 95,74 %
13.02.2023 16:30 13,3 C 12,2 C 7,2 C 69 % 1035,1 hPa 0,0 l/m 0 min 0 min 30 W/m 0,0 km/h (0 Bft) 93,48 %
13.02.2023 16:32 13,3 C 12,2 C 7,2 C 69 % 1035,1 hPa 0,0 l/m 0 min 0 min 30 W/m 0,0 km/h (0 Bft) 95,74 %
13.02.2023 16:34 13,3 C 12,2 C 7,2 C 69 % 1035,0 hPa 0,0 l/m 0 min 0 min 29 W/m 0,0 km/h (0 Bft) 97,87 %
13.02.2023 16:36 13,2 C 12,2 C 7,2 C 69 % 1035,0 hPa 0,0 l/m 0 min 0 min 28 W/m 0,0 km/h (0 Bft) 95,74 %
13.02.2023 16:38 13,2 C 12,2 C 7,2 C 69 % 1035,0 hPa 0,0 l/m 0 min 0 min 28 W/m 0,0 km/h (0 Bft) 97,87 %
13.02.2023 16:40 13,2 C 12,2 C 7,2 C 69 % 1035,0 hPa 0,0 l/m 0 min 0 min 26 W/m 0,0 km/h (0 Bft) 97,87 %
13.02.2023 16:42 13,1 C 11,7 C 7,2 C 69 % 1035,0 hPa 0,0 l/m 0 min 0 min 26 W/m 0,0 km/h (0 Bft) 97,83 %
13.02.2023 16:44 13,1 C 11,7 C 6,7 C 69 % 1035,0 hPa 0,0 l/m 0 min 0 min 26 W/m 0,0 km/h (0 Bft) 97,87 %
13.02.2023 16:46 13,1 C 11,7 C 6,7 C 70 % 1035,0 hPa 0,0 l/m 0 min 0 min 26 W/m 0,0 km/h (0 Bft) 97,87 %
13.02.2023 16:48 13,1 C 11,7 C 6,7 C 70 % 1035,0 hPa 0,0 l/m 0 min 0 min 25 W/m 0,0 km/h (0 Bft) 100,00 %
13.02.2023 16:50 13,1 C 11,1 C 6,1 C 70 % 1035,0 hPa 0,0 l/m 0 min 0 min 25 W/m 0,0 km/h (0 Bft) 100,00 %
13.02.2023 16:52 13,1 C 11,1 C 6,1 C 70 % 1035,0 hPa 0,0 l/m 0 min 0 min 25 W/m 0,0 km/h (0 Bft) 100,00 %
13.02.2023 16:54 13,0 C 11,1 C 6,1 C 70 % 1035,1 hPa 0,0 l/m 0 min 0 min 23 W/m 0,0 km/h (0 Bft) 100,00 %
13.02.2023 16:56 13,0 C 10,6 C 5,6 C 70 % 1035,1 hPa 0,0 l/m 0 min 0 min 23 W/m 0,0 km/h (0 Bft) 100,00 %
13.02.2023 16:58 12,9 C 10,6 C 5,6 C 70 % 1035,1 hPa 0,0 l/m 0 min 0 min 22 W/m 0,0 km/h (0 Bft) 100,00 %
13.02.2023 17:00 12,9 C 10,6 C 5,6 C 70 % 1035,1 hPa 0,0 l/m 0 min 0 min 21 W/m 0,0 km/h (0 Bft) 97,87 %
13.02.2023 17:02 12,9 C 10,6 C 5,6 C 70 % 1035,0 hPa 0,0 l/m 0 min 0 min 21 W/m 0,0 km/h (0 Bft) 97,87 %
13.02.2023 17:04 12,8 C 10,6 C 5,6 C 70 % 1035,0 hPa 0,0 l/m 0 min 0 min 19 W/m 0,0 km/h (0 Bft) 100,00 %
13.02.2023 17:06 12,8 C 10,6 C 5,0 C 70 % 1035,0 hPa 0,0 l/m 0 min 0 min 19 W/m 0,0 km/h (0 Bft) 100,00 %
13.02.2023 17:08 12,7 C 10,0 C 5,0 C 71 % 1035,0 hPa 0,0 l/m 0 min 0 min 19 W/m 0,0 km/h (0 Bft) 100,00 %
13.02.2023 17:10 12,7 C 10,0 C 5,0 C 71 % 1034,9 hPa 0,0 l/m 0 min 0 min 18 W/m 0,0 km/h (0 Bft) 100,00 %
13.02.2023 17:12 12,7 C 10,0 C 5,0 C 71 % 1034,9 hPa 0,0 l/m 0 min 0 min 18 W/m 0,0 km/h (0 Bft) 100,00 %
13.02.2023 17:14 12,6 C 10,0 C 5,0 C 71 % 1034,9 hPa 0,0 l/m 0 min 0 min 17 W/m 0,0 km/h (0 Bft) 100,00 %
13.02.2023 17:16 12,6 C 10,0 C 4,4 C 71 % 1034,9 hPa 0,0 l/m 0 min 0 min 16 W/m 0,0 km/h (0 Bft) 100,00 %
13.02.2023 17:18 12,5 C 10,0 C 4,4 C 71 % 1034,9 hPa 0,0 l/m 0 min 0 min 15 W/m 0,0 km/h (0 Bft) 97,87 %
13.02.2023 17:20 12,4 C 9,4 C 4,4 C 71 % 1034,9 hPa 0,0 l/m 0 min 0 min 14 W/m 0,0 km/h (0 Bft) 100,00 %
13.02.2023 17:22 12,4 C 9,4 C 4,4 C 71 % 1034,9 hPa 0,0 l/m 0 min 0 min 14 W/m 0,0 km/h (0 Bft) 100,00 %
13.02.2023 17:24 12,3 C 9,4 C 4,4 C 71 % 1034,9 hPa 0,0 l/m 0 min 0 min 12 W/m 0,0 km/h (0 Bft) 100,00 %
13.02.2023 17:26 12,3 C 9,4 C 4,4 C 71 % 1034,8 hPa 0,0 l/m 0 min 0 min 12 W/m 0,0 km/h (0 Bft) 97,87 %
13.02.2023 17:28 12,2 C 9,4 C 3,9 C 71 % 1034,9 hPa 0,0 l/m 0 min 0 min 12 W/m 0,0 km/h (0 Bft) 97,87 %
13.02.2023 17:30 12,1 C 9,4 C 3,9 C 71 % 1034,9 hPa 0,0 l/m 0 min 0 min 11 W/m 0,0 km/h (0 Bft) 100,00 %
13.02.2023 17:32 12,1 C 9,4 C 3,9 C 72 % 1034,9 hPa 0,0 l/m 0 min 0 min 11 W/m 0,0 km/h (0 Bft) 100,00 %
13.02.2023 17:34 12,0 C 8,9 C 3,9 C 72 % 1034,9 hPa 0,0 l/m 0 min 0 min 9 W/m 0,0 km/h (0 Bft) 100,00 %
13.02.2023 17:36 11,9 C 8,9 C 3,9 C 72 % 1034,9 hPa 0,0 l/m 0 min 0 min 9 W/m 0,0 km/h (0 Bft) 100,00 %
13.02.2023 17:38 11,9 C 8,9 C 3,9 C 72 % 1034,9 hPa 0,0 l/m 0 min 0 min 8 W/m 0,0 km/h (0 Bft) 100,00 %
13.02.2023 17:40 11,8 C 8,3 C 3,3 C 72 % 1034,9 hPa 0,0 l/m 0 min 0 min 7 W/m 0,0 km/h (0 Bft) 100,00 %
13.02.2023 17:42 11,7 C 8,3 C 3,3 C 72 % 1034,9 hPa 0,0 l/m 0 min 0 min 7 W/m 0,0 km/h (0 Bft) 100,00 %
13.02.2023 17:44 11,7 C 8,3 C 3,3 C 73 % 1034,9 hPa 0,0 l/m 0 min 0 min 5 W/m 0,0 km/h (0 Bft) 100,00 %
13.02.2023 17:46 11,6 C 8,3 C 3,3 C 73 % 1034,9 hPa 0,0 l/m 0 min 0 min 5 W/m 0,0 km/h (0 Bft) 95,74 %
13.02.2023 17:48 11,5 C 8,3 C 3,3 C 73 % 1034,9 hPa 0,0 l/m 0 min 0 min 4 W/m 0,0 km/h (0 Bft) 97,87 %
13.02.2023 17:50 11,4 C 8,3 C 3,3 C 73 % 1034,9 hPa 0,0 l/m 0 min 0 min 0 W/m 0,0 km/h (0 Bft) 100,00 %
13.02.2023 17:52 11,3 C 8,3 C 3,3 C 73 % 1034,8 hPa 0,0 l/m 0 min 0 min 0 W/m 0,0 km/h (0 Bft) 100,00 %
13.02.2023 17:54 11,2 C 7,8 C 3,3 C 74 % 1034,9 hPa 0,0 l/m 0 min 0 min 0 W/m 0,0 km/h (0 Bft) 100,00 %
13.02.2023 17:56 11,2 C 7,8 C 2,8 C 74 % 1034,9 hPa 0,0 l/m 0 min 0 min 0 W/m 0,0 km/h (0 Bft) 97,87 %
13.02.2023 17:58 11,1 C 7,8 C 2,8 C 74 % 1034,9 hPa 0,0 l/m 0 min 0 min 0 W/m 0,0 km/h (0 Bft) 95,74 %
13.02.2023 18:00 11,0 C 7,8 C 2,8 C 74 % 1034,9 hPa 0,0 l/m 0 min 0 min 0 W/m 0,0 km/h (0 Bft) 97,87 %
13.02.2023 18:02 10,9 C 7,8 C 2,8 C 75 % 1035,0 hPa 0,0 l/m 0 min 0 min 0 W/m 0,0 km/h (0 Bft) 91,49 %
13.02.2023 18:04 10,8 C 7,2 C 2,8 C 75 % 1035,0 hPa 0,0 l/m 0 min 0 min 0 W/m 0,0 km/h (0 Bft) 95,65 %
13.02.2023 18:07 10,7 C 7,2 C 2,8 C 75 % 1035,0 hPa 0,0 l/m 0 min 0 min 0 W/m 0,0 km/h (0 Bft) 95,77 %
13.02.2023 18:08 10,7 C 7,2 C 2,8 C 75 % 1035,0 hPa 0,0 l/m 0 min 0 min 0 W/m 0,0 km/h (0 Bft) 95,65 %
13.02.2023 18:12 10,5 C 7,2 C 2,8 C 76 % 1035,2 hPa 0,0 l/m 0 min 0 min 0 W/m 0,0 km/h (0 Bft) 92,98 %
13.02.2023 18:14 10,4 C 7,2 C 2,2 C 76 % 1035,2 hPa 0,0 l/m 0 min 0 min 0 W/m 0,0 km/h (0 Bft) 93,62 %
13.02.2023 18:16 10,3 C 7,2 C 2,2 C 76 % 1035,2 hPa 0,0 l/m 0 min 0 min 0 W/m 0,0 km/h (0 Bft) 91,49 %
13.02.2023 18:18 10,2 C 7,2 C 2,2 C 76 % 1035,2 hPa 0,0 l/m 0 min 0 min 0 W/m 0,0 km/h (0 Bft) 91,49 %
13.02.2023 18:20 10,1 C 7,2 C 2,2 C 77 % 1035,3 hPa 0,0 l/m 0 min 0 min 0 W/m 0,0 km/h (0 Bft) 93,48 %
13.02.2023 18:22 10,0 C 7,2 C 2,2 C 77 % 1035,3 hPa 0,0 l/m 0 min 0 min 0 W/m 0,0 km/h (0 Bft) 93,62 %
13.02.2023 18:24 9,9 C 6,7 C 2,2 C 77 % 1035,3 hPa 0,0 l/m 0 min 0 min 0 W/m 0,0 km/h (0 Bft) 95,74 %
13.02.2023 18:26 9,8 C 6,7 C 2,2 C 77 % 1035,3 hPa 0,0 l/m 0 min 0 min 0 W/m 0,0 km/h (0 Bft) 95,74 %
13.02.2023 18:28 9,7 C 6,7 C 2,2 C 77 % 1035,3 hPa 0,0 l/m 0 min 0 min 0 W/m 0,0 km/h (0 Bft) 95,74 %
13.02.2023 18:30 9,7 C 6,7 C 2,2 C 78 % 1035,4 hPa 0,0 l/m 0 min 0 min 0 W/m 0,0 km/h (0 Bft) 95,74 %
13.02.2023 18:32 9,6 C 6,7 C 2,2 C 78 % 1035,4 hPa 0,0 l/m 0 min 0 min 0 W/m 0,0 km/h (0 Bft) 95,74 %
13.02.2023 18:34 9,5 C 6,7 C 2,2 C 78 % 1035,4 hPa 0,0 l/m 0 min 0 min 0 W/m 0,0 km/h (0 Bft) 95,65 %
13.02.2023 18:36 9,4 C 6,7 C 2,2 C 78 % 1035,5 hPa 0,0 l/m 0 min 0 min 0 W/m 0,0 km/h (0 Bft) 95,74 %
13.02.2023 18:38 9,3 C 6,7 C 1,7 C 79 % 1035,4 hPa 0,0 l/m 0 min 0 min 0 W/m 0,0 km/h (0 Bft) 97,87 %
13.02.2023 18:40 9,3 C 6,7 C 1,7 C 79 % 1035,4 hPa 0,0 l/m 0 min 0 min 0 W/m 0,0 km/h (0 Bft) 97,87 %
13.02.2023 18:42 9,2 C 6,7 C 1,7 C 79 % 1035,4 hPa 0,0 l/m 0 min 0 min 0 W/m 0,0 km/h (0 Bft) 95,74 %
13.02.2023 18:44 9,1 C 6,1 C 1,7 C 79 % 1035,5 hPa 0,0 l/m 0 min 0 min 0 W/m 0,0 km/h (0 Bft) 97,87 %
13.02.2023 18:46 9,1 C 6,1 C 1,7 C 79 % 1035,5 hPa 0,0 l/m 0 min 0 min 0 W/m 0,0 km/h (0 Bft) 97,83 %
13.02.2023 18:48 8,9 C 6,1 C 1,7 C 79 % 1035,5 hPa 0,0 l/m 0 min 0 min 0 W/m 0,0 km/h (0 Bft) 97,87 %
13.02.2023 18:50 8,9 C 6,1 C 1,7 C 79 % 1035,5 hPa 0,0 l/m 0 min 0 min 0 W/m 0,0 km/h (0 Bft) 97,87 %
13.02.2023 18:52 8,8 C 6,1 C 1,7 C 80 % 1035,4 hPa 0,0 l/m 0 min 0 min 0 W/m 0,0 km/h (0 Bft) 95,74 %
13.02.2023 18:54 8,8 C 6,1 C 1,7 C 80 % 1035,4 hPa 0,0 l/m 0 min 0 min 0 W/m 0,0 km/h (0 Bft) 97,87 %
13.02.2023 18:56 8,7 C 6,1 C 1,7 C 80 % 1035,4 hPa 0,0 l/m 0 min 0 min 0 W/m 0,0 km/h (0 Bft) 95,74 %
13.02.2023 18:58 8,6 C 6,1 C 1,7 C 80 % 1035,4 hPa 0,0 l/m 0 min 0 min 0 W/m 0,0 km/h (0 Bft) 97,87 %
13.02.2023 19:00 8,6 C 6,1 C 1,7 C 80 % 1035,4 hPa 0,0 l/m 0 min 0 min 0 W/m 0,0 km/h (0 Bft) 97,83 %
13.02.2023 19:02 8,5 C 6,1 C 1,7 C 81 % 1035,4 hPa 0,0 l/m 0 min 0 min 0 W/m 0,0 km/h (0 Bft) 91,49 %
13.02.2023 19:04 8,4 C 6,1 C 1,7 C 81 % 1035,4 hPa 0,0 l/m 0 min 0 min 0 W/m 0,0 km/h (0 Bft) 97,87 %
13.02.2023 19:06 8,3 C 6,7 C 1,7 C 81 % 1035,4 hPa 0,0 l/m 0 min 0 min 0 W/m 0,0 km/h (0 Bft) 97,96 %
13.02.2023 19:08 8,3 C 6,1 C 1,7 C 81 % 1035,4 hPa 0,0 l/m 0 min 0 min 0 W/m 0,0 km/h (0 Bft) 97,14 %
13.02.2023 19:10 8,3 C 6,7 C 1,7 C 82 % 1035,4 hPa 0,0 l/m 0 min 0 min 0 W/m 0,0 km/h (0 Bft) 96,55 %
13.02.2023 19:12 8,2 C 6,7 C 1,7 C 82 % 1035,4 hPa 0,0 l/m 0 min 0 min 0 W/m 0,0 km/h (0 Bft) 100,00 %
13.02.2023 19:14 8,2 C 6,7 C 1,7 C 83 % 1035,4 hPa 0,0 l/m 0 min 0 min 0 W/m 0,0 km/h (0 Bft) 100,00 %
13.02.2023 19:16 8,2 C 6,7 C 1,7 C 83 % 1035,4 hPa 0,0 l/m 0 min 0 min 0 W/m 0,0 km/h (0 Bft) 95,74 %
13.02.2023 19:18 8,2 C 6,7 C 1,7 C 83 % 1035,4 hPa 0,0 l/m 0 min 0 min 0 W/m 0,0 km/h (0 Bft) 100,00 %
13.02.2023 19:20 8,1 C 6,7 C 1,7 C 83 % 1035,4 hPa 0,0 l/m 0 min 0 min 0 W/m 0,0 km/h (0 Bft) 100,00 %
13.02.2023 19:22 8,1 C 6,7 C 1,7 C 83 % 1035,4 hPa 0,0 l/m 0 min 0 min 0 W/m 0,0 km/h (0 Bft) 97,83 %
13.02.2023 19:24 8,1 C 6,1 C 1,7 C 83 % 1035,3 hPa 0,0 l/m 0 min 0 min 0 W/m 0,0 km/h (0 Bft) 100,00 %
13.02.2023 19:26 8,1 C 6,7 C 1,7 C 83 % 1035,3 hPa 0,0 l/m 0 min 0 min 0 W/m 0,0 km/h (0 Bft) 95,74 %
13.02.2023 19:28 8,0 C 6,7 C 1,7 C 83 % 1035,3 hPa 0,0 l/m 0 min 0 min 0 W/m 0,0 km/h (0 Bft) 97,87 %
13.02.2023 19:30 8,0 C 6,7 C 1,7 C 83 % 1035,3 hPa 0,0 l/m 0 min 0 min 0 W/m 0,0 km/h (0 Bft) 97,87 %
13.02.2023 19:32 8,0 C 6,7 C 1,7 C 83 % 1035,3 hPa 0,0 l/m 0 min 0 min 0 W/m 0,0 km/h (0 Bft) 95,74 %
13.02.2023 19:34 7,9 C 6,7 C 1,7 C 84 % 1035,3 hPa 0,0 l/m 0 min 0 min 0 W/m 0,0 km/h (0 Bft) 97,83 %
13.02.2023 19:36 7,9 C 6,7 C 1,7 C 84 % 1035,3 hPa 0,0 l/m 0 min 0 min 0 W/m 0,0 km/h (0 Bft) 97,87 %
13.02.2023 19:38 7,9 C 6,1 C 1,7 C 84 % 1035,3 hPa 0,0 l/m 0 min 0 min 0 W/m 0,0 km/h (0 Bft) 93,62 %
13.02.2023 19:40 7,9 C 6,1 C 1,7 C 83 % 1035,3 hPa 0,0 l/m 0 min 0 min 0 W/m 0,0 km/h (0 Bft) 95,74 %
13.02.2023 19:42 7,9 C 6,1 C 1,7 C 83 % 1035,3 hPa 0,0 l/m 0 min 0 min 0 W/m 0,0 km/h (0 Bft) 97,87 %
13.02.2023 19:44 7,8 C 5,6 C 1,7 C 83 % 1035,3 hPa 0,0 l/m 0 min 0 min 0 W/m 0,0 km/h (0 Bft) 97,87 %
13.02.2023 19:46 7,8 C 5,6 C 1,7 C 83 % 1035,2 hPa 0,0 l/m 0 min 0 min 0 W/m 0,0 km/h (0 Bft) 95,74 %
13.02.2023 19:48 7,8 C 5,6 C 1,1 C 83 % 1035,2 hPa 0,0 l/m 0 min 0 min 0 W/m 0,0 km/h (0 Bft) 95,65 %
13.02.2023 19:50 7,7 C 5,6 C 1,1 C 83 % 1035,2 hPa 0,0 l/m 0 min 0 min 0 W/m 0,0 km/h (0 Bft) 95,74 %
13.02.2023 19:52 7,7 C 5,6 C 1,1 C 83 % 1035,2 hPa 0,0 l/m 0 min 0 min 0 W/m 0,0 km/h (0 Bft) 93,62 %
13.02.2023 19:54 7,7 C 5,6 C 1,1 C 83 % 1035,2 hPa 0,0 l/m 0 min 0 min 0 W/m 0,0 km/h (0 Bft) 95,74 %
13.02.2023 19:56 7,6 C 5,0 C 1,1 C 83 % 1035,2 hPa 0,0 l/m 0 min 0 min 0 W/m 0,0 km/h (0 Bft) 95,74 %
13.02.2023 19:58 7,6 C 5,0 C 1,1 C 83 % 1035,2 hPa 0,0 l/m 0 min 0 min 0 W/m 0,0 km/h (0 Bft) 97,87 %
13.02.2023 20:00 7,6 C 5,0 C 1,1 C 83 % 1035,2 hPa 0,0 l/m 0 min 0 min 0 W/m 0,0 km/h (0 Bft) 97,87 %
13.02.2023 20:02 7,5 C 5,0 C 1,1 C 83 % 1035,2 hPa 0,0 l/m 0 min 0 min 0 W/m 0,0 km/h (0 Bft) 97,83 %
13.02.2023 20:04 7,4 C 5,0 C 1,1 C 83 % 1035,3 hPa 0,0 l/m 0 min 0 min 0 W/m 0,0 km/h (0 Bft) 97,87 %
13.02.2023 20:06 7,4 C 5,0 C 1,1 C 83 % 1035,2 hPa 0,0 l/m 0 min 0 min 0 W/m 0,0 km/h (0 Bft) 98,31 %
13.02.2023 20:08 7,3 C 5,0 C 1,1 C 83 % 1035,2 hPa 0,0 l/m 0 min 0 min 0 W/m 0,0 km/h (0 Bft) 97,14 %
13.02.2023 20:10 7,3 C 5,0 C 0,6 C 83 % 1035,2 hPa 0,0 l/m 0 min 0 min 0 W/m 0,0 km/h (0 Bft) 97,87 %
13.02.2023 20:12 7,2 C 5,0 C 0,6 C 83 % 1035,2 hPa 0,0 l/m 0 min 0 min 0 W/m 0,0 km/h (0 Bft) 95,74 %
13.02.2023 20:14 7,2 C 5,0 C 0,6 C 83 % 1035,3 hPa 0,0 l/m 0 min 0 min 0 W/m 0,0 km/h (0 Bft) 97,83 %
13.02.2023 20:16 7,1 C 4,4 C 0,6 C 83 % 1035,3 hPa 0,0 l/m 0 min 0 min 0 W/m 0,0 km/h (0 Bft) 97,87 %
13.02.2023 20:18 7,1 C 4,4 C 0,6 C 83 % 1035,3 hPa 0,0 l/m 0 min 0 min 0 W/m 0,0 km/h (0 Bft) 97,87 %
13.02.2023 20:20 7,0 C 4,4 C 0,6 C 83 % 1035,3 hPa 0,0 l/m 0 min 0 min 0 W/m 0,0 km/h (0 Bft) 97,87 %
13.02.2023 20:22 6,9 C 4,4 C 0,6 C 83 % 1035,2 hPa 0,0 l/m 0 min 0 min 0 W/m 0,0 km/h (0 Bft) 100,00 %
13.02.2023 20:24 6,9 C 4,4 C 0,6 C 83 % 1035,2 hPa 0,0 l/m 0 min 0 min 0 W/m 0,0 km/h (0 Bft) 100,00 %
13.02.2023 20:26 6,8 C 4,4 C 0,6 C 83 % 1035,2 hPa 0,0 l/m 0 min 0 min 0 W/m 0,0 km/h (0 Bft) 100,00 %
13.02.2023 20:28 6,8 C 4,4 C 0,6 C 83 % 1035,2 hPa 0,0 l/m 0 min 0 min 0 W/m 0,0 km/h (0 Bft) 100,00 %
13.02.2023 20:30 6,7 C 4,4 C 0,6 C 84 % 1035,2 hPa 0,0 l/m 0 min 0 min 0 W/m 0,0 km/h (0 Bft) 100,00 %
13.02.2023 20:32 6,7 C 4,4 C 0,6 C 84 % 1035,2 hPa 0,0 l/m 0 min 0 min 0 W/m 0,0 km/h (0 Bft) 100,00 %
13.02.2023 20:34 6,6 C 4,4 C 0,6 C 84 % 1035,2 hPa 0,0 l/m 0 min 0 min 0 W/m 0,0 km/h (0 Bft) 100,00 %
13.02.2023 20:36 6,6 C 5,0 C 0,6 C 84 % 1035,2 hPa 0,0 l/m 0 min 0 min 0 W/m 0,0 km/h (0 Bft) 100,00 %
13.02.2023 20:38 6,5 C 5,0 C 0,6 C 84 % 1035,3 hPa 0,0 l/m 0 min 0 min 0 W/m 0,0 km/h (0 Bft) 97,87 %
13.02.2023 20:40 6,5 C 5,0 C 0,6 C 84 % 1035,3 hPa 0,0 l/m 0 min 0 min 0 W/m 0,0 km/h (0 Bft) 100,00 %
13.02.2023 20:42 6,4 C 5,0 C 0,6 C 84 % 1035,3 hPa 0,0 l/m 0 min 0 min 0 W/m 0,0 km/h (0 Bft) 97,87 %
13.02.2023 20:44 6,4 C 5,0 C 0,6 C 85 % 1035,3 hPa 0,0 l/m 0 min 0 min 0 W/m 0,0 km/h (0 Bft) 97,87 %
13.02.2023 20:46 6,4 C 5,6 C 0,6 C 85 % 1035,4 hPa 0,0 l/m 0 min 0 min 0 W/m 0,0 km/h (0 Bft) 97,87 %
13.02.2023 20:48 6,4 C 5,6 C 0,6 C 85 % 1035,3 hPa 0,0 l/m 0 min 0 min 0 W/m 0,0 km/h (0 Bft) 100,00 %
13.02.2023 20:50 6,4 C 5,6 C 1,1 C 86 % 1035,4 hPa 0,0 l/m 0 min 0 min 0 W/m 0,0 km/h (0 Bft) 97,87 %
13.02.2023 20:52 6,4 C 6,1 C 1,1 C 86 % 1035,4 hPa 0,0 l/m 0 min 0 min 0 W/m 0,0 km/h (0 Bft) 91,49 %
13.02.2023 20:54 6,4 C 6,1 C 1,7 C 86 % 1035,3 hPa 0,0 l/m 0 min 0 min 0 W/m 0,0 km/h (0 Bft) 100,00 %
13.02.2023 20:56 6,4 C 6,1 C 1,7 C 86 % 1035,3 hPa 0,0 l/m 0 min 0 min 0 W/m 0,0 km/h (0 Bft) 97,87 %
13.02.2023 20:58 6,5 C 6,1 C 1,7 C 87 % 1035,4 hPa 0,0 l/m 0 min 0 min 0 W/m 0,0 km/h (0 Bft) 95,74 %
13.02.2023 21:00 6,5 C 6,7 C 2,2 C 87 % 1035,4 hPa 0,0 l/m 0 min 0 min 0 W/m 0,0 km/h (0 Bft) 97,87 %
13.02.2023 21:02 6,5 C 6,7 C 2,2 C 87 % 1035,4 hPa 0,0 l/m 0 min 0 min 0 W/m 0,0 km/h (0 Bft) 93,62 %
13.02.2023 21:04 6,5 C 6,7 C 2,2 C 87 % 1035,3 hPa 0,0 l/m 0 min 0 min 0 W/m 0,0 km/h (0 Bft) 97,87 %
13.02.2023 21:06 6,6 C 7,2 C 2,8 C 87 % 1035,4 hPa 0,0 l/m 0 min 0 min 0 W/m 0,0 km/h (0 Bft) 97,83 %
13.02.2023 21:08 6,7 C 7,2 C 2,8 C 88 % 1035,4 hPa 0,0 l/m 0 min 0 min 0 W/m 0,0 km/h (0 Bft) 95,74 %
13.02.2023 21:10 6,7 C 7,2 C 2,8 C 88 % 1035,4 hPa 0,0 l/m 0 min 0 min 0 W/m 0,0 km/h (0 Bft) 97,87 %
13.02.2023 21:12 6,8 C 7,2 C 2,8 C 88 % 1035,4 hPa 0,0 l/m 0 min 0 min 0 W/m 0,0 km/h (0 Bft) 97,87 %
13.02.2023 21:14 6,8 C 7,2 C 2,8 C 88 % 1035,4 hPa 0,0 l/m 0 min 0 min 0 W/m 0,0 km/h (0 Bft) 95,74 %
13.02.2023 21:16 6,9 C 7,2 C 3,3 C 87 % 1035,4 hPa 0,0 l/m 0 min 0 min 0 W/m 0,0 km/h (0 Bft) 97,87 %
13.02.2023 21:18 6,9 C 7,2 C 3,3 C 87 % 1035,4 hPa 0,0 l/m 0 min 0 min 0 W/m 0,0 km/h (0 Bft) 97,87 %
13.02.2023 21:20 7,1 C 7,2 C 3,3 C 87 % 1035,5 hPa 0,0 l/m 0 min 0 min 0 W/m 0,0 km/h (0 Bft) 93,48 %
13.02.2023 21:22 7,1 C 7,2 C 3,3 C 87 % 1035,4 hPa 0,0 l/m 0 min 0 min 0 W/m 3,2 km/h (1 Bft) 97,87 %
13.02.2023 21:24 7,2 C 7,2 C 3,3 C 87 % 1035,5 hPa 0,0 l/m 0 min 0 min 0 W/m 6,4 km/h (2 Bft) 95,74 %
13.02.2023 21:26 7,2 C 7,2 C 3,3 C 87 % 1035,4 hPa 0,0 l/m 0 min 0 min 0 W/m 3,2 km/h (1 Bft) 97,87 %
13.02.2023 21:28 7,3 C 7,2 C 3,3 C 87 % 1035,5 hPa 0,0 l/m 0 min 0 min 0 W/m 0,0 km/h (0 Bft) 97,87 %
13.02.2023 21:30 7,3 C 7,2 C 3,3 C 87 % 1035,4 hPa 0,0 l/m 0 min 0 min 0 W/m 0,0 km/h (0 Bft) 95,74 %
13.02.2023 21:32 7,3 C 7,2 C 3,3 C 86 % 1035,4 hPa 0,0 l/m 0 min 0 min 0 W/m 0,0 km/h (0 Bft) 95,65 %
13.02.2023 21:34 7,3 C 7,2 C 3,3 C 86 % 1035,4 hPa 0,0 l/m 0 min 0 min 0 W/m 0,0 km/h (0 Bft) 97,87 %
13.02.2023 21:36 7,4 C 7,2 C 3,3 C 86 % 1035,4 hPa 0,0 l/m 0 min 0 min 0 W/m 0,0 km/h (0 Bft) 97,87 %
13.02.2023 21:38 7,4 C 7,2 C 3,3 C 86 % 1035,4 hPa 0,0 l/m 0 min 0 min 0 W/m 0,0 km/h (0 Bft) 93,62 %
13.02.2023 21:40 7,4 C 7,2 C 3,3 C 86 % 1035,4 hPa 0,0 l/m 0 min 0 min 0 W/m 0,0 km/h (0 Bft) 97,87 %
13.02.2023 21:42 7,4 C 7,2 C 3,3 C 86 % 1035,4 hPa 0,0 l/m 0 min 0 min 0 W/m 0,0 km/h (0 Bft) 97,87 %
13.02.2023 21:44 7,5 C 7,2 C 3,3 C 85 % 1035,4 hPa 0,0 l/m 0 min 0 min 0 W/m 6,4 km/h (2 Bft) 93,62 %
13.02.2023 21:46 7,6 C 7,2 C 3,3 C 85 % 1035,5 hPa 0,0 l/m 0 min 0 min 0 W/m 6,4 km/h (2 Bft) 95,65 %
13.02.2023 21:48 7,6 C 7,2 C 3,3 C 85 % 1035,4 hPa 0,0 l/m 0 min 0 min 0 W/m 3,2 km/h (1 Bft) 93,62 %
13.02.2023 21:50 7,6 C 7,2 C 3,3 C 85 % 1035,4 hPa 0,0 l/m 0 min 0 min 0 W/m 6,4 km/h (2 Bft) 95,74 %
13.02.2023 21:52 7,6 C 7,2 C 3,3 C 85 % 1035,3 hPa 0,0 l/m 0 min 0 min 0 W/m 6,4 km/h (2 Bft) 94,34 %
13.02.2023 21:54 7,6 C 7,2 C 3,3 C 85 % 1035,3 hPa 0,0 l/m 0 min 0 min 0 W/m 6,4 km/h (2 Bft) 97,37 %
13.02.2023 21:56 7,7 C 7,2 C 3,3 C 85 % 1035,4 hPa 0,0 l/m 0 min 0 min 0 W/m 12,9 km/h (3 Bft) 93,62 %
13.02.2023 21:58 7,7 C 7,2 C 3,3 C 84 % 1035,3 hPa 0,0 l/m 0 min 0 min 0 W/m 6,4 km/h (2 Bft) 95,74 %
13.02.2023 22:00 7,7 C 6,7 C 3,3 C 84 % 1035,3 hPa 0,0 l/m 0 min 0 min 0 W/m 6,4 km/h (2 Bft) 93,62 %
13.02.2023 22:02 7,7 C 6,7 C 3,3 C 84 % 1035,3 hPa 0,0 l/m 0 min 0 min 0 W/m 9,7 km/h (2 Bft) 97,87 %
13.02.2023 22:04 7,7 C 6,7 C 3,3 C 84 % 1035,4 hPa 0,0 l/m 0 min 0 min 0 W/m 9,7 km/h (2 Bft) 95,92 %
13.02.2023 22:06 7,7 C 6,7 C 3,3 C 84 % 1035,3 hPa 0,0 l/m 0 min 0 min 0 W/m 6,4 km/h (2 Bft) 97,87 %
13.02.2023 22:08 7,7 C 6,7 C 3,3 C 84 % 1035,3 hPa 0,0 l/m 0 min 0 min 0 W/m 12,9 km/h (3 Bft) 95,74 %
13.02.2023 22:10 7,7 C 6,7 C 3,3 C 84 % 1035,3 hPa 0,0 l/m 0 min 0 min 0 W/m 12,9 km/h (3 Bft) 97,92 %
13.02.2023 22:12 7,7 C 6,7 C 3,3 C 84 % 1035,3 hPa 0,0 l/m 0 min 0 min 0 W/m 6,4 km/h (2 Bft) 95,65 %
13.02.2023 22:14 7,6 C 6,7 C 2,8 C 84 % 1035,3 hPa 0,0 l/m 0 min 0 min 0 W/m 6,4 km/h (2 Bft) 97,87 %
13.02.2023 22:16 7,6 C 6,7 C 2,8 C 84 % 1035,4 hPa 0,0 l/m 0 min 0 min 0 W/m 12,9 km/h (3 Bft) 97,87 %
13.02.2023 22:18 7,6 C 6,7 C 2,8 C 84 % 1035,4 hPa 0,0 l/m 0 min 0 min 0 W/m 6,4 km/h (2 Bft) 97,87 %
13.02.2023 22:20 7,6 C 6,7 C 2,8 C 84 % 1035,4 hPa 0,0 l/m 0 min 0 min 0 W/m 6,4 km/h (2 Bft) 95,74 %
13.02.2023 22:22 7,6 C 6,7 C 2,8 C 84 % 1035,4 hPa 0,0 l/m 0 min 0 min 0 W/m 6,4 km/h (2 Bft) 97,87 %
13.02.2023 22:24 7,6 C 6,7 C 2,8 C 84 % 1035,5 hPa 0,0 l/m 0 min 0 min 0 W/m 6,4 km/h (2 Bft) 97,87 %
13.02.2023 22:26 7,6 C 6,7 C 2,8 C 84 % 1035,5 hPa 0,0 l/m 0 min 0 min 0 W/m 6,4 km/h (2 Bft) 97,83 %
13.02.2023 22:28 7,5 C 6,7 C 2,8 C 84 % 1035,4 hPa 0,0 l/m 0 min 0 min 0 W/m 6,4 km/h (2 Bft) 97,87 %
13.02.2023 22:30 7,5 C 6,7 C 2,8 C 84 % 1035,5 hPa 0,0 l/m 0 min 0 min 0 W/m 6,4 km/h (2 Bft) 97,87 %
13.02.2023 22:32 7,4 C 6,1 C 2,8 C 84 % 1035,4 hPa 0,0 l/m 0 min 0 min 0 W/m 3,2 km/h (1 Bft) 97,87 %
13.02.2023 22:34 7,4 C 6,1 C 2,8 C 84 % 1035,4 hPa 0,0 l/m 0 min 0 min 0 W/m 6,4 km/h (2 Bft) 97,87 %
13.02.2023 22:36 7,4 C 6,1 C 2,8 C 84 % 1035,3 hPa 0,0 l/m 0 min 0 min 0 W/m 6,4 km/h (2 Bft) 93,62 %
13.02.2023 22:38 7,4 C 6,1 C 2,8 C 84 % 1035,3 hPa 0,0 l/m 0 min 0 min 0 W/m 6,4 km/h (2 Bft) 97,83 %
13.02.2023 22:40 7,3 C 6,1 C 2,8 C 84 % 1035,3 hPa 0,0 l/m 0 min 0 min 0 W/m 6,4 km/h (2 Bft) 100,00 %
13.02.2023 22:42 7,3 C 6,1 C 2,8 C 84 % 1035,3 hPa 0,0 l/m 0 min 0 min 0 W/m 6,4 km/h (2 Bft) 97,87 %
13.02.2023 22:44 7,3 C 6,1 C 2,8 C 84 % 1035,3 hPa 0,0 l/m 0 min 0 min 0 W/m 6,4 km/h (2 Bft) 100,00 %
13.02.2023 22:46 7,3 C 6,1 C 2,8 C 84 % 1035,3 hPa 0,0 l/m 0 min 0 min 0 W/m 6,4 km/h (2 Bft) 100,00 %
13.02.2023 22:48 7,3 C 6,1 C 2,8 C 84 % 1035,3 hPa 0,0 l/m 0 min 0 min 0 W/m 6,4 km/h (2 Bft) 100,00 %
13.02.2023 22:50 7,3 C 6,7 C 2,8 C 84 % 1035,3 hPa 0,0 l/m 0 min 0 min 0 W/m 6,4 km/h (2 Bft) 100,00 %
13.02.2023 22:52 7,3 C 6,7 C 2,8 C 84 % 1035,3 hPa 0,0 l/m 0 min 0 min 0 W/m 16,1 km/h (3 Bft) 97,83 %
13.02.2023 22:54 7,3 C 6,1 C 2,8 C 84 % 1035,2 hPa 0,0 l/m 0 min 0 min 0 W/m 9,7 km/h (2 Bft) 100,00 %
13.02.2023 22:56 7,2 C 6,1 C 2,8 C 84 % 1035,2 hPa 0,0 l/m 0 min 0 min 0 W/m 9,7 km/h (2 Bft) 97,87 %
13.02.2023 22:58 7,2 C 6,1 C 2,8 C 84 % 1035,2 hPa 0,0 l/m 0 min 0 min 0 W/m 12,9 km/h (3 Bft) 97,87 %
13.02.2023 23:00 7,2 C 6,1 C 2,8 C 84 % 1035,2 hPa 0,0 l/m 0 min 0 min 0 W/m 12,9 km/h (3 Bft) 97,87 %
13.02.2023 23:02 7,2 C 6,1 C 2,8 C 84 % 1035,3 hPa 0,0 l/m 0 min 0 min 0 W/m 6,4 km/h (2 Bft) 100,00 %
13.02.2023 23:04 7,2 C 6,1 C 2,8 C 84 % 1035,3 hPa 0,0 l/m 0 min 0 min 0 W/m 6,4 km/h (2 Bft) 100,00 %
13.02.2023 23:06 7,2 C 6,1 C 2,8 C 84 % 1035,3 hPa 0,0 l/m 0 min 0 min 0 W/m 9,7 km/h (2 Bft) 97,87 %
13.02.2023 23:08 7,2 C 6,1 C 2,8 C 84 % 1035,3 hPa 0,0 l/m 0 min 0 min 0 W/m 6,4 km/h (2 Bft) 97,87 %
13.02.2023 23:10 7,2 C 6,1 C 2,8 C 84 % 1035,2 hPa 0,0 l/m 0 min 0 min 0 W/m 6,4 km/h (2 Bft) 100,00 %
13.02.2023 23:12 7,1 C 6,1 C 2,8 C 84 % 1035,2 hPa 0,0 l/m 0 min 0 min 0 W/m 6,4 km/h (2 Bft) 80,85 %
13.02.2023 23:14 7,1 C 6,1 C 2,8 C 84 % 1035,2 hPa 0,0 l/m 0 min 0 min 0 W/m 6,4 km/h (2 Bft) 69,77 %
13.02.2023 23:16 7,1 C 6,1 C 2,8 C 84 % 1035,3 hPa 0,0 l/m 0 min 0 min 0 W/m 6,4 km/h (2 Bft) 95,74 %
13.02.2023 23:18 7,1 C 6,1 C 2,8 C 84 % 1035,4 hPa 0,0 l/m 0 min 0 min 0 W/m 6,4 km/h (2 Bft) 91,30 %
13.02.2023 23:20 7,1 C 6,1 C 2,8 C 84 % 1035,4 hPa 0,0 l/m 0 min 0 min 0 W/m 6,4 km/h (2 Bft) 95,74 %
13.02.2023 23:22 7,1 C 6,1 C 2,8 C 84 % 1035,4 hPa 0,0 l/m 0 min 0 min 0 W/m 6,4 km/h (2 Bft) 95,74 %
13.02.2023 23:24 7,1 C 6,1 C 2,8 C 84 % 1035,4 hPa 0,0 l/m 0 min 0 min 0 W/m 6,4 km/h (2 Bft) 95,74 %
13.02.2023 23:26 7,0 C 6,1 C 2,2 C 84 % 1035,4 hPa 0,0 l/m 0 min 0 min 0 W/m 6,4 km/h (2 Bft) 95,74 %
13.02.2023 23:28 7,0 C 6,1 C 2,2 C 84 % 1035,4 hPa 0,0 l/m 0 min 0 min 0 W/m 6,4 km/h (2 Bft) 95,74 %
13.02.2023 23:30 6,9 C 6,1 C 2,2 C 84 % 1035,4 hPa 0,0 l/m 0 min 0 min 0 W/m 12,9 km/h (3 Bft) 95,74 %
13.02.2023 23:32 6,9 C 6,1 C 2,2 C 84 % 1035,4 hPa 0,0 l/m 0 min 0 min 0 W/m 6,4 km/h (2 Bft) 95,65 %
13.02.2023 23:34 6,9 C 6,1 C 2,2 C 84 % 1035,5 hPa 0,0 l/m 0 min 0 min 0 W/m 6,4 km/h (2 Bft) 95,74 %
13.02.2023 23:36 6,9 C 6,1 C 2,2 C 84 % 1035,5 hPa 0,0 l/m 0 min 0 min 0 W/m 6,4 km/h (2 Bft) 93,62 %
13.02.2023 23:38 6,9 C 5,6 C 2,2 C 84 % 1035,5 hPa 0,0 l/m 0 min 0 min 0 W/m 3,2 km/h (1 Bft) 93,62 %
13.02.2023 23:40 6,8 C 5,6 C 2,2 C 84 % 1035,5 hPa 0,0 l/m 0 min 0 min 0 W/m 12,9 km/h (3 Bft) 95,74 %
13.02.2023 23:42 6,8 C 5,6 C 2,2 C 84 % 1035,5 hPa 0,0 l/m 0 min 0 min 0 W/m 3,2 km/h (1 Bft) 93,62 %
13.02.2023 23:44 6,8 C 5,6 C 2,2 C 84 % 1035,5 hPa 0,0 l/m 0 min 0 min 0 W/m 6,4 km/h (2 Bft) 95,74 %
13.02.2023 23:46 6,8 C 5,6 C 2,2 C 84 % 1035,5 hPa 0,0 l/m 0 min 0 min 0 W/m 6,4 km/h (2 Bft) 97,83 %
13.02.2023 23:48 6,8 C 5,6 C 2,2 C 84 % 1035,5 hPa 0,0 l/m 0 min 0 min 0 W/m 3,2 km/h (1 Bft) 100,00 %
13.02.2023 23:50 6,7 C 5,6 C 1,7 C 84 % 1035,4 hPa 0,0 l/m 0 min 0 min 0 W/m 3,2 km/h (1 Bft) 100,00 %
13.02.2023 23:52 6,7 C 5,6 C 1,7 C 85 % 1035,5 hPa 0,0 l/m 0 min 0 min 0 W/m 3,2 km/h (1 Bft) 100,00 %
13.02.2023 23:54 6,7 C 5,6 C 1,7 C 84 % 1035,5 hPa 0,0 l/m 0 min 0 min 0 W/m 3,2 km/h (1 Bft) 100,00 %
13.02.2023 23:56 6,7 C 5,6 C 1,7 C 85 % 1035,5 hPa 0,0 l/m 0 min 0 min 0 W/m 6,4 km/h (2 Bft) 100,00 %
13.02.2023 23:58 6,6 C 5,6 C 1,7 C 85 % 1035,5 hPa 0,0 l/m 0 min 0 min 0 W/m 3,2 km/h (1 Bft) 100,00 %
_ Min-Zeit 06:50 06:14 06:16 14:46 17:26 - - - - 00:00 08:54
Minimum _ 4,7 C 3,3 C 0,6 C 68 % 1034,8 hPa - - - - 0,0 km/h (0 Bft) 42,86 %
_ Max-Zeit 14:58 13:22 12:32 07:52 00:12 00:00 09:04 00:00 13:04 02:22 00:02
Maximum _ 13,9 C 23,9 C 10,6 C 95 % 1038,1 hPa 0,0 l/m 2 min 0 min 466 W/m 19,3 km/h
SO (3 Bft)
100,00 %
Durchschnitt _ 8,7 C 9,1 C 4,0 C 84 % 1036,4 hPa #0,0 l/m #5:46 h #0 min. 211 W/m 5,4 km/h (1 Bft) 96,76 %
© 2023 W. Hausmann